Laatste waarneming: 12:48
Temperatuur:15,8°C
Dauwpunt:7,5°C
Rel. vocht:57,7%
Natte-bol:11,4°C
Wind (gem. 10 min.):4,3 m/s
Wind (max. 10 min.):1.7E+308 m/s
Windrichting:20°
Neerslagsom:0,0 mm
Neerslagintensiteit:0,0 mm/u
Luchtdruk:1019,2 hPa
Straling:694,0 W/m2
 
Maximumtemp.:16,2°C (12:02)
Minimumtemp.:8,9°C (06:22)
Hoogste windstoot:- m/s (12:48)


Bekijk de verwachting.

Bekijk de grafieken.
Bekijk het weekoverzicht.
Bekijk het maandoverzicht.
Bekijk het jaaroverzicht.
Dagtabel
Tijd Temp. Dauwp. Natte-bol Rel. Hum. Windsnelh. Windricht. Windstoot Neerslag Straling Luchtdruk
 
12:48 15,8 7,5 11,4 57,7 4,3 20 - 0,0 694 1.019,2
12:47 15,8 7,5 11,4 57,5 3,5 314 - 0,0 696 1.019,3
12:46 15,8 7,6 11,5 58,0 3,1 327 - 0,0 696 1.019,3
12:45 15,8 7,2 11,3 56,5 3,0 12 - 0,0 698 1.019,3
12:44 15,8 7,1 11,2 56,0 2,7 27 - 0,0 670 1.019,3
12:43 15,7 7,0 11,2 56,0 1,8 39 - 0,0 631 1.019,2
12:42 15,7 7,0 11,2 56,0 1,1 345 - 0,0 679 1.019,2
12:41 15,7 7,0 11,1 56,0 1,6 105 - 0,0 712 1.019,2
12:40 15,7 7,0 11,1 56,0 2,1 45 - 0,0 706 1.019,2
12:39 15,7 6,9 11,1 56,0 2,1 98 - 0,0 697 1.019,3
12:38 15,6 6,9 11,1 56,0 2,0 56 - 0,0 697 1.019,3
12:37 15,6 6,9 11,0 56,0 2,1 61 - 0,0 690 1.019,3
12:36 15,6 6,9 11,1 56,0 2,4 73 - 0,0 686 1.019,3
12:35 15,6 6,9 11,0 56,0 2,8 71 - 0,0 687 1.019,3
12:34 15,6 6,9 11,0 56,0 2,6 72 - 0,0 687 1.019,3
12:33 15,6 6,9 11,0 56,0 1,8 84 - 0,0 688 1.019,4
12:32 15,7 7,0 11,1 56,1 2,1 30 - 0,0 688 1.019,4
12:31 15,7 7,3 11,3 57,0 2,4 40 - 0,0 688 1.019,4
12:30 15,7 7,3 11,3 57,0 2,0 21 - 0,0 615 1.019,4
12:29 15,7 7,1 11,2 56,5 1,6 59 - 0,0 373 1.019,4
12:28 15,7 7,0 11,2 56,0 1,8 43 - 0,0 338 1.019,4
12:27 15,8 7,1 11,2 56,0 2,1 77 - 0,0 358 1.019,4
12:26 15,8 6,8 11,1 55,2 2,6 43 - 0,0 549 1.019,4
12:25 15,8 7,1 11,2 56,0 2,4 28 - 0,0 726 1.019,4
12:24 15,8 7,2 11,3 56,4 2,3 123 - 0,0 726 1.019,4
12:23 15,8 7,4 11,4 57,0 1,9 76 - 0,0 713 1.019,5
12:22 15,8 7,4 11,4 57,0 1,6 53 - 0,0 705 1.019,5
12:21 15,8 7,4 11,4 57,0 1,8 53 - 0,0 696 1.019,5
12:20 15,9 7,2 11,3 56,1 2,1 55 - 0,0 694 1.019,5
12:19 15,9 7,1 11,3 55,7 1,9 12 - 0,0 688 1.019,5
12:18 16,0 7,0 11,2 55,0 1,6 328 - 0,0 363 1.019,5
12:17 16,0 7,0 11,3 55,0 1,4 43 - 0,0 283 1.019,5
12:16 16,1 7,1 11,3 55,0 1,9 60 - 0,0 283 1.019,4
12:15 16,2 7,4 11,5 55,9 1,9 22 - 0,0 283 1.019,5
12:14 16,2 7,4 11,5 56,0 2,2 61 - 0,0 506 1.019,5
12:13 16,2 7,4 11,5 56,0 2,2 47 - 0,0 728 1.019,5
12:12 16,2 7,4 11,5 56,0 1,7 86 - 0,0 728 1.019,5
12:11 16,2 7,3 11,5 55,4 0,9 28 - 0,0 719 1.019,5
12:10 16,2 7,4 11,5 55,8 1,4 12 - 0,0 700 1.019,5
12:09 16,2 7,7 11,7 56,9 2,3 87 - 0,0 700 1.019,5
12:08 16,1 7,6 11,6 56,8 2,3 62 - 0,0 712 1.019,6
12:07 16,1 7,5 11,5 56,4 1,6 86 - 0,0 719 1.019,6
12:06 16,1 7,6 11,6 57,0 1,9 73 - 0,0 721 1.019,6
12:05 16,1 7,5 11,6 56,4 2,7 70 - 0,0 750 1.019,5
12:04 16,2 7,6 11,6 56,8 2,7 94 - 0,0 751 1.019,6
12:03 16,2 7,7 11,7 57,1 2,8 34 - 0,0 754 1.019,6
12:02 16,2 8,0 11,9 58,2 3,7 45 - 0,0 770 1.019,5
12:01 16,2 8,3 12,0 59,4 4,0 59 - 0,0 789 1.019,6
12:00 16,1 8,2 11,9 59,5 3,5 53 - 0,0 805 1.019,7
 
11:59 16,0 8,2 11,9 59,6 2,5 56 - 0,0 806 1.019,6
11:58 15,9 8,2 11,9 60,0 1,1 20 - 0,0 800 1.019,6
11:57 15,9 8,2 11,8 60,0 0,2 224 - 0,0 799 1.019,5
11:56 15,8 8,1 11,8 60,0 0,2 71 - 0,0 804 1.019,5
11:55 15,7 8,0 11,7 60,0 0,6 20 - 0,0 810 1.019,5
11:54 15,6 8,1 11,7 60,5 0,9 81 - 0,0 810 1.019,6
11:53 15,5 8,1 11,7 61,0 1,2 119 - 0,0 811 1.019,6
11:52 15,5 7,9 11,5 60,2 1,4 34 - 0,0 803 1.019,5
11:51 15,4 7,8 11,4 60,1 1,1 124 - 0,0 795 1.019,5
11:50 15,3 7,9 11,5 61,0 0,5 6 - 0,0 786 1.019,6
11:49 15,3 7,9 11,4 61,0 0,6 176 - 0,0 782 1.019,5
11:48 15,2 7,8 11,4 61,0 0,5 255 - 0,0 782 1.019,6
11:47 15,2 7,6 11,2 60,4 1,0 72 - 0,0 781 1.019,6
11:46 15,1 7,5 11,2 60,0 2,2 88 - 0,0 770 1.019,6
11:45 15,1 7,4 11,1 60,0 2,1 87 - 0,0 765 1.019,6
11:44 15,0 7,4 11,1 60,0 2,0 58 - 0,0 439 1.019,5
11:43 15,0 7,5 11,1 60,4 2,3 62 - 0,0 221 1.019,5
11:42 15,0 7,6 11,2 61,0 2,1 74 - 0,0 220 1.019,5
11:41 15,0 7,6 11,2 61,0 1,9 135 - 0,0 193 1.019,5
11:40 15,0 7,6 11,2 61,0 1,6 82 - 0,0 184 1.019,5
11:39 15,0 7,6 11,2 61,0 1,5 67 - 0,0 197 1.019,6
11:38 15,0 7,6 11,2 61,0 1,6 57 - 0,0 211 1.019,5
11:37 15,0 7,6 11,2 61,0 2,0 50 - 0,0 264 1.019,5
11:36 15,0 7,6 11,2 61,0 2,3 76 - 0,0 226 1.019,6
11:35 15,0 7,6 11,1 61,0 2,5 45 - 0,0 197 1.019,6
11:34 15,0 7,6 11,1 61,0 2,4 67 - 0,0 173 1.019,5
11:33 15,0 7,6 11,2 61,0 2,1 37 - 0,0 162 1.019,5
11:32 15,0 7,7 11,2 61,4 2,2 30 - 0,0 151 1.019,5
11:31 14,9 7,8 11,3 62,0 3,0 71 - 0,0 150 1.019,5
11:30 14,9 7,8 11,2 62,0 2,8 49 - 0,0 572 1.019,5
11:29 14,9 7,7 11,2 62,0 1,7 82 - 0,0 594 1.019,5
11:28 14,9 7,7 11,2 62,0 1,0 100 - 0,0 594 1.019,5
11:27 14,8 7,8 11,2 62,4 1,3 78 - 0,0 640 1.019,5
11:26 14,8 7,9 11,2 63,0 2,2 71 - 0,0 686 1.019,5
11:25 14,8 7,9 11,2 63,0 2,1 72 - 0,0 686 1.019,5
11:24 14,7 7,8 11,2 63,0 1,2 155 - 0,0 686 1.019,5
11:23 14,7 7,8 11,2 63,0 0,2 72 - 0,0 683 1.019,5
11:22 14,7 7,8 11,1 63,0 0,3 261 - 0,0 673 1.019,5
11:21 14,6 7,8 11,1 63,0 0,2 59 - 0,0 671 1.019,5
11:20 14,6 7,7 11,1 63,0 1,4 57 - 0,0 674 1.019,5
11:19 14,6 7,8 11,1 63,5 2,3 97 - 0,0 673 1.019,5
11:18 14,5 7,9 11,1 64,0 2,5 57 - 0,0 630 1.019,5
11:17 14,5 7,8 11,1 64,0 2,0 90 - 0,0 188 1.019,5
11:16 14,4 7,8 11,1 64,0 1,2 61 - 0,0 184 1.019,5
11:15 14,4 7,8 11,0 64,0 0,8 36 - 0,0 164 1.019,5
11:14 14,4 7,8 11,0 64,0 1,8 116 - 0,0 514 1.019,5
11:13 14,4 7,7 11,0 64,0 2,5 95 - 0,0 668 1.019,5
11:12 14,3 7,7 10,9 64,0 2,6 102 - 0,0 669 1.019,5
11:11 14,3 7,8 11,0 64,8 1,9 119 - 0,0 675 1.019,5
11:10 14,2 7,8 11,0 65,0 2,4 57 - 0,0 675 1.019,5
11:09 14,2 7,8 10,9 65,0 2,7 116 - 0,0 670 1.019,5
11:08 14,1 7,7 10,9 65,0 2,4 84 - 0,0 666 1.019,5
11:07 14,1 7,7 10,9 65,0 1,1 103 - 0,0 664 1.019,5
11:06 14,1 7,7 10,8 65,0 1,1 188 - 0,0 631 1.019,5
11:05 14,0 7,8 10,9 65,8 1,6 86 - 0,0 629 1.019,5
11:04 14,0 7,8 10,9 65,9 1,8 70 - 0,0 629 1.019,5
11:03 13,9 7,5 10,7 65,0 1,1 74 - 0,0 629 1.019,5
11:02 13,9 7,5 10,7 65,0 1,4 166 - 0,0 634 1.019,5
11:01 13,8 7,4 10,6 65,0 1,3 151 - 0,0 642 1.019,5
11:00 13,8 7,6 10,7 65,7 0,9 90 - 0,0 633 1.019,5
 
10:59 13,8 7,7 10,7 66,0 1,3 209 - 0,0 627 1.019,5
10:58 13,8 7,6 10,7 66,0 1,7 158 - 0,0 628 1.019,5
10:57 13,8 7,6 10,7 66,0 2,3 99 - 0,0 620 1.019,5
10:56 13,8 7,6 10,7 66,0 2,8 73 - 0,0 603 1.019,5
10:55 13,7 7,6 10,7 66,0 2,4 91 - 0,0 599 1.019,5
10:54 13,8 7,6 10,7 66,0 2,2 88 - 0,0 599 1.019,5
10:53 13,7 7,6 10,6 66,0 2,6 99 - 0,0 599 1.019,5
10:52 13,7 7,6 10,7 66,0 3,5 136 - 0,0 565 1.019,5
10:51 13,7 7,6 10,7 66,3 3,9 78 - 0,0 510 1.019,5
10:50 13,7 7,7 10,7 67,0 3,9 78 - 0,0 561 1.019,5
10:49 13,7 7,7 10,7 67,0 3,2 101 - 0,0 141 1.019,5
10:48 13,7 7,7 10,7 67,0 2,5 44 - 0,0 111 1.019,5
10:47 13,6 7,7 10,7 67,0 2,2 108 - 0,0 277 1.019,5
10:46 13,6 7,7 10,7 67,0 2,9 100 - 0,0 557 1.019,5
10:45 13,6 7,7 10,7 67,4 3,5 72 - 0,0 557 1.019,5
10:44 13,6 7,9 10,8 68,0 3,3 109 - 0,0 553 1.019,5
10:43 13,6 8,0 10,8 68,6 2,4 84 - 0,0 548 1.019,5
10:42 13,6 8,1 10,9 69,0 2,2 45 - 0,0 551 1.019,6
10:41 13,6 8,0 10,8 69,0 2,0 21 - 0,0 540 1.019,5
10:40 13,6 8,0 10,8 69,0 1,6 85 - 0,0 541 1.019,5
10:39 13,5 8,0 10,8 69,0 2,2 105 - 0,0 540 1.019,5
10:38 13,5 8,0 10,8 69,0 2,6 78 - 0,0 540 1.019,5
10:37 13,5 7,9 10,8 69,0 1,9 101 - 0,0 533 1.019,4
10:36 13,4 7,9 10,7 69,0 0,6 190 - 0,0 528 1.019,4
10:35 13,4 7,9 10,7 69,0 0,6 315 - 0,0 524 1.019,4
10:34 13,4 7,9 10,7 69,0 0,5 311 - 0,0 524 1.019,4
10:33 13,4 7,9 10,7 69,0 0,6 152 - 0,0 525 1.019,5
10:32 13,4 7,9 10,7 69,0 0,5 224 - 0,0 524 1.019,6
10:31 13,3 7,8 10,6 69,0 0,4 57 - 0,0 523 1.019,6
10:30 13,3 7,8 10,6 69,0 0,1 208 - 0,0 517 1.019,6
10:29 13,3 7,8 10,6 69,0 0,1 278 - 0,0 515 1.019,6
10:28 13,3 7,8 10,6 69,3 0,2 83 - 0,0 506 1.019,6
10:27 13,3 8,0 10,7 70,0 0,8 282 - 0,0 508 1.019,6
10:26 13,3 8,0 10,7 70,0 0,9 291 - 0,0 510 1.019,6
10:25 13,2 8,0 10,7 70,0 0,2 94 - 0,0 509 1.019,7
10:24 13,3 8,0 10,7 70,0 1,3 247 - 0,0 504 1.019,7
10:23 13,2 8,0 10,7 70,0 2,2 122 - 0,0 498 1.019,8
10:22 13,2 8,0 10,7 70,3 1,5 95 - 0,0 488 1.019,8
10:21 13,2 8,1 10,8 71,0 0,7 249 - 0,0 478 1.019,7
10:20 13,2 8,1 10,8 71,0 1,5 88 - 0,0 484 1.019,7
10:19 13,2 8,1 10,8 71,0 2,9 73 - 0,0 489 1.019,7
10:18 13,2 8,1 10,7 71,0 1,5 141 - 0,0 489 1.019,7
10:17 13,2 8,1 10,7 71,0 0,5 196 - 0,0 484 1.019,6
10:16 13,2 8,1 10,7 71,3 0,9 307 - 0,0 483 1.019,7
10:15 13,1 8,2 10,8 72,0 1,2 294 - 0,0 487 1.019,7
10:14 13,1 8,2 10,8 72,0 0,5 226 - 0,0 485 1.019,7
10:13 13,1 8,2 10,7 72,0 0,5 49 - 0,0 485 1.019,7
10:12 13,1 8,2 10,8 72,0 0,8 167 - 0,0 484 1.019,7
10:11 13,1 8,2 10,7 72,0 1,7 355 - 0,0 484 1.019,8
10:10 13,1 8,2 10,7 72,0 3,5 101 - 0,0 479 1.019,9
10:09 13,1 8,2 10,7 72,0 4,6 95 - 0,0 478 1.019,9
10:08 13,0 8,2 10,7 72,0 3,6 104 - 0,0 475 1.019,8
10:07 13,0 8,3 10,8 72,8 1,6 101 - 0,0 470 1.019,8
10:06 13,0 8,3 10,8 73,0 0,6 236 - 0,0 470 1.019,8
10:05 13,0 8,3 10,8 73,0 0,5 60 - 0,0 456 1.019,8
10:04 13,0 8,3 10,8 73,0 2,2 61 - 0,0 393 1.019,8
10:03 13,0 8,3 10,8 73,0 2,5 77 - 0,0 205 1.019,9
10:02 13,0 8,3 10,8 73,0 2,7 140 - 0,0 157 1.019,9
10:01 13,0 8,3 10,8 73,0 2,5 73 - 0,0 74 1.019,8
10:00 13,0 8,3 10,7 73,1 2,2 107 - 0,0 47 1.019,8
 
09:59 12,9 8,4 10,8 73,8 1,9 95 - 0,0 46 1.019,8
09:58 12,9 8,3 10,7 73,4 1,5 63 - 0,0 46 1.019,8
09:57 12,9 8,4 10,8 74,0 1,7 69 - 0,0 46 1.019,9
09:56 12,9 8,4 10,8 74,0 1,3 53 - 0,0 46 1.019,9
09:55 12,9 8,4 10,8 74,0 0,8 289 - 0,0 46 1.019,9
09:54 12,9 8,4 10,8 74,0 0,7 312 - 0,0 46 1.019,9
09:53 12,8 8,4 10,7 74,0 0,1 172 - 0,0 46 1.019,9
09:52 12,8 8,4 10,7 74,0 0,3 47 - 0,0 46 1.019,9
09:51 12,8 8,3 10,7 74,0 0,3 241 - 0,0 46 1.019,9
09:50 12,8 8,3 10,7 74,0 0,9 101 - 0,0 46 1.019,9
09:49 12,8 8,3 10,7 74,0 1,8 113 - 0,0 46 1.019,9
09:48 12,8 8,3 10,7 74,0 1,4 88 - 0,0 46 1.019,9
09:47 12,8 8,3 10,7 74,0 0,9 169 - 0,0 46 1.019,9
09:46 12,8 8,3 10,7 74,0 0,2 81 - 0,0 46 1.019,9
09:45 12,8 8,3 10,7 74,0 0,6 310 - 0,0 46 1.019,9
09:44 12,8 8,3 10,7 74,0 1,2 265 - 0,0 46 1.019,9
09:43 12,8 8,3 10,7 74,0 1,0 299 - 0,0 46 1.019,9
09:42 12,8 8,3 10,7 74,0 0,7 263 - 0,0 46 1.019,9
09:41 12,8 8,3 10,7 74,0 0,9 191 - 0,0 46 1.019,9
09:40 12,8 8,3 10,7 74,0 0,4 208 - 0,0 46 1.019,9
09:39 12,7 8,3 10,6 74,0 0,8 43 - 0,0 46 1.019,9
09:38 12,7 8,3 10,6 74,0 1,3 82 - 0,0 46 1.019,9
09:37 12,7 8,3 10,6 74,0 0,5 89 - 0,0 46 1.020,0
09:36 12,7 8,3 10,6 74,0 0,5 260 - 0,0 46 1.020,0
09:35 12,7 8,3 10,6 74,0 0,8 211 - 0,0 46 1.020,0
09:34 12,7 8,3 10,7 74,4 0,4 178 - 0,0 46 1.019,9
09:33 12,7 8,5 10,7 75,0 0,2 44 - 0,0 46 1.019,9
09:32 12,7 8,4 10,7 75,0 0,4 304 - 0,0 46 1.019,9
09:31 12,7 8,4 10,7 75,0 1,1 222 - 0,0 50 1.019,9
09:30 12,7 8,4 10,7 75,0 1,5 252 - 0,0 179 1.019,9
09:29 12,7 8,4 10,7 75,0 1,3 236 - 0,0 301 1.019,9
09:28 12,7 8,4 10,7 75,0 2,1 139 - 0,0 370 1.019,9
09:27 12,7 8,4 10,7 75,0 2,1 82 - 0,0 390 1.019,9
09:26 12,7 8,4 10,7 75,0 0,6 359 - 0,0 389 1.019,9
09:25 12,7 8,4 10,7 75,0 0,8 250 - 0,0 385 1.019,9
09:24 12,6 8,4 10,7 75,0 1,5 159 - 0,0 381 1.020,0
09:23 12,6 8,4 10,7 75,3 2,2 90 - 0,0 375 1.019,9
09:22 12,6 8,5 10,7 76,0 2,3 107 - 0,0 377 1.019,9
09:21 12,6 8,5 10,7 76,0 1,4 93 - 0,0 373 1.019,9
09:20 12,6 8,5 10,7 76,0 0,8 273 - 0,0 373 1.019,9
09:19 12,5 8,5 10,7 76,0 1,0 118 - 0,0 373 1.019,9
09:18 12,5 8,4 10,7 76,0 1,0 101 - 0,0 373 1.019,9
09:17 12,5 8,4 10,6 76,0 0,5 255 - 0,0 369 1.019,9
09:16 12,5 8,4 10,6 76,0 0,5 127 - 0,0 367 1.019,9
09:15 12,4 8,4 10,6 76,0 0,5 229 - 0,0 366 1.019,9
09:14 12,4 8,4 10,6 76,0 0,1 247 - 0,0 362 1.019,9
09:13 12,4 8,3 10,5 76,1 1,0 60 - 0,0 361 1.019,9
09:12 12,4 8,5 10,6 77,0 2,0 78 - 0,0 359 1.019,9
09:11 12,3 8,5 10,6 77,0 1,8 80 - 0,0 358 1.019,9
09:10 12,3 8,4 10,5 77,0 1,4 178 - 0,0 354 1.019,9
09:09 12,3 8,4 10,5 77,0 1,1 74 - 0,0 353 1.020,0
09:08 12,2 8,4 10,5 77,0 0,7 98 - 0,0 351 1.020,0
09:07 12,2 8,3 10,5 77,0 0,2 318 - 0,0 348 1.020,0
09:06 12,2 8,3 10,4 77,0 0,2 131 - 0,0 347 1.020,0
09:05 12,1 8,3 10,4 77,0 0,5 274 - 0,0 345 1.020,0
09:04 12,1 8,2 10,4 77,0 0,6 274 - 0,0 343 1.020,0
09:03 12,1 8,3 10,4 77,7 0,7 165 - 0,0 342 1.020,0
09:02 12,1 8,4 10,4 78,0 1,1 128 - 0,0 339 1.020,1
09:01 12,0 8,3 10,4 78,0 0,5 112 - 0,0 339 1.020,0
09:00 12,0 8,3 10,3 78,0 0,2 304 - 0,0 337 1.020,0
 
08:59 11,9 8,3 10,3 78,0 0,0 78 - 0,0 335 1.019,9
08:58 11,9 8,2 10,3 78,0 0,6 188 - 0,0 330 1.020,0
08:57 11,9 8,2 10,2 78,0 0,2 100 - 0,0 329 1.020,0
08:56 11,8 8,2 10,2 78,0 0,5 305 - 0,0 328 1.020,0
08:55 11,8 8,1 10,2 78,2 0,5 84 - 0,0 325 1.020,0
08:54 11,8 8,3 10,2 79,0 0,5 300 - 0,0 322 1.019,9
08:53 11,7 8,2 10,2 79,0 0,9 313 - 0,0 321 1.019,9
08:52 11,7 8,2 10,1 79,0 0,9 256 - 0,0 320 1.019,9
08:51 11,7 8,2 10,1 79,0 1,0 315 - 0,0 316 1.020,0
08:50 11,6 8,1 10,1 79,0 1,3 292 - 0,0 315 1.019,9
08:49 11,6 8,1 10,1 79,0 0,6 284 - 0,0 314 1.019,9
08:48 11,6 8,1 10,0 79,0 1,0 85 - 0,0 308 1.019,9
08:47 11,5 8,0 10,0 79,0 1,2 101 - 0,0 304 1.020,0
08:46 11,5 8,1 10,0 79,6 0,7 250 - 0,0 306 1.020,0
08:45 11,4 8,1 10,0 80,0 0,7 101 - 0,0 304 1.020,0
08:44 11,4 8,1 10,0 80,0 1,3 24 - 0,0 302 1.020,0
08:43 11,4 8,1 9,9 80,0 0,7 103 - 0,0 301 1.020,0
08:42 11,3 8,0 9,9 80,0 0,2 259 - 0,0 298 1.020,0
08:41 11,3 8,0 9,9 80,0 0,4 271 - 0,0 295 1.020,0
08:40 11,3 8,0 9,9 80,0 0,1 128 - 0,0 294 1.020,0
08:39 11,2 7,9 9,8 80,0 0,3 327 - 0,0 291 1.020,0
08:38 11,2 7,9 9,8 80,0 0,2 107 - 0,0 287 1.020,0
08:37 11,2 7,9 9,7 80,0 0,2 259 - 0,0 285 1.020,0
08:36 11,1 7,9 9,7 80,4 0,7 259 - 0,0 284 1.020,0
08:35 11,1 7,9 9,7 80,5 0,8 300 - 0,0 281 1.020,0
08:34 11,1 7,9 9,7 80,7 0,8 267 - 0,0 279 1.020,0
08:33 11,0 7,9 9,7 81,0 0,4 288 - 0,0 278 1.020,0
08:32 11,0 7,9 9,7 81,0 0,2 163 - 0,0 275 1.020,0
08:31 10,9 7,8 9,6 81,0 0,3 332 - 0,0 273 1.020,1
08:30 10,9 7,8 9,6 81,0 0,8 265 - 0,0 271 1.020,1
08:29 10,9 7,8 9,6 81,0 0,9 307 - 0,0 269 1.020,1
08:28 10,8 7,7 9,5 81,0 0,7 319 - 0,0 267 1.020,1
08:27 10,8 7,7 9,5 81,0 0,2 217 - 0,0 264 1.020,1
08:26 10,8 7,7 9,5 81,0 0,4 65 - 0,0 261 1.020,1
08:25 10,7 7,6 9,4 81,0 0,3 155 - 0,0 259 1.020,1
08:24 10,7 7,6 9,4 81,0 0,5 264 - 0,0 257 1.020,1
08:23 10,7 7,6 9,4 81,0 0,5 281 - 0,0 255 1.020,1
08:22 10,7 7,6 9,4 81,0 0,4 50 - 0,0 251 1.020,1
08:21 10,7 7,7 9,4 81,8 1,1 119 - 0,0 250 1.020,1
08:20 10,7 7,7 9,4 82,0 1,5 88 - 0,0 247 1.020,1
08:19 10,6 7,7 9,4 82,0 0,9 115 - 0,0 246 1.020,1
08:18 10,6 7,6 9,4 82,0 0,7 242 - 0,0 244 1.020,1
08:17 10,6 7,6 9,3 82,0 0,5 97 - 0,0 241 1.020,1
08:16 10,5 7,6 9,3 82,0 0,4 257 - 0,0 239 1.020,1
08:15 10,5 7,6 9,3 82,0 0,4 114 - 0,0 237 1.020,0
08:14 10,5 7,5 9,2 82,0 0,3 295 - 0,0 235 1.020,1
08:13 10,4 7,5 9,2 82,0 0,6 85 - 0,0 232 1.020,1
08:12 10,4 7,5 9,2 82,0 0,4 20 - 0,0 229 1.020,1
08:11 10,4 7,5 9,2 82,0 0,3 230 - 0,0 227 1.020,1
08:10 10,3 7,4 9,1 82,0 1,0 126 - 0,0 225 1.020,1
08:09 10,3 7,5 9,2 82,9 1,2 172 - 0,0 222 1.020,1
08:08 10,3 7,5 9,2 83,0 0,6 99 - 0,0 221 1.020,1
08:07 10,3 7,5 9,2 83,0 0,3 259 - 0,0 219 1.020,1
08:06 10,2 7,4 9,1 82,6 0,4 109 - 0,0 216 1.020,1
08:05 10,2 7,4 9,1 82,8 0,5 72 - 0,0 213 1.020,1
08:04 10,2 7,4 9,1 83,0 0,2 246 - 0,0 212 1.020,1
08:03 10,2 7,4 9,0 83,0 0,3 90 - 0,0 210 1.020,1
08:02 10,1 7,4 9,0 83,0 0,8 18 - 0,0 207 1.020,1
08:01 10,1 7,3 8,9 83,0 0,7 67 - 0,0 204 1.020,1
08:00 10,1 7,3 8,9 83,0 0,4 123 - 0,0 204 1.020,1
 
07:59 10,1 7,3 8,9 83,0 0,7 247 - 0,0 202 1.020,1
07:58 10,0 7,2 8,9 83,0 0,8 211 - 0,0 200 1.020,1
07:57 10,0 7,2 8,9 83,0 0,9 124 - 0,0 198 1.020,1
07:56 10,0 7,2 8,8 83,0 1,2 101 - 0,0 196 1.020,1
07:55 9,9 7,2 8,8 83,0 0,8 113 - 0,0 194 1.020,1
07:54 9,9 7,2 8,8 83,0 0,8 220 - 0,0 192 1.020,1
07:53 9,9 7,1 8,8 83,0 0,9 226 - 0,0 188 1.020,1
07:52 9,9 7,1 8,7 83,0 0,6 144 - 0,0 186 1.020,0
07:51 9,8 7,1 8,7 83,0 0,5 294 - 0,0 184 1.020,1
07:50 9,8 7,1 8,7 83,0 0,8 20 - 0,0 182 1.020,0
07:49 9,8 7,1 8,7 83,0 0,6 248 - 0,0 180 1.020,0
07:48 9,8 7,0 8,7 83,0 0,4 30 - 0,0 178 1.020,0
07:47 9,7 7,0 8,6 83,0 0,5 15 - 0,0 176 1.020,0
07:46 9,7 7,0 8,6 83,0 0,1 112 - 0,0 173 1.020,0
07:45 9,7 7,0 8,6 83,0 0,4 242 - 0,0 171 1.020,0
07:44 9,7 6,9 8,6 83,0 0,3 188 - 0,0 168 1.019,9
07:43 9,7 6,9 8,5 83,0 0,3 355 - 0,0 166 1.020,0
07:42 9,6 6,9 8,5 83,0 0,3 310 - 0,0 163 1.020,0
07:41 9,6 6,9 8,5 83,0 0,4 106 - 0,0 160 1.019,9
07:40 9,6 6,9 8,5 83,0 0,6 174 - 0,0 157 1.019,9
07:39 9,6 6,8 8,5 83,0 0,3 37 - 0,0 156 1.019,8
07:38 9,6 6,8 8,4 83,0 0,3 206 - 0,0 154 1.019,8
07:37 9,6 6,8 8,4 83,0 0,3 252 - 0,0 150 1.019,8
07:36 9,5 6,8 8,4 83,0 0,4 76 - 0,0 148 1.019,8
07:35 9,5 6,8 8,4 83,0 0,4 126 - 0,0 146 1.019,8
07:34 9,5 6,7 8,4 83,0 0,4 317 - 0,0 143 1.019,8
07:33 9,4 6,7 8,3 83,0 0,7 11 - 0,0 140 1.019,8
07:32 9,4 6,7 8,3 83,0 1,4 111 - 0,0 138 1.019,8
07:31 9,4 6,7 8,3 83,0 1,5 111 - 0,0 136 1.019,8
07:30 9,4 6,7 8,3 83,0 1,1 90 - 0,0 131 1.019,8
07:29 9,4 6,6 8,3 83,0 1,2 104 - 0,0 130 1.019,8
07:28 9,4 6,7 8,3 83,0 1,3 103 - 0,0 127 1.019,8
07:27 9,3 6,6 8,2 83,0 1,3 72 - 0,0 125 1.019,8
07:26 9,3 6,6 8,2 83,0 1,0 120 - 0,0 124 1.019,7
07:25 9,3 6,6 8,2 83,0 1,0 203 - 0,0 120 1.019,7
07:24 9,3 6,6 8,2 83,0 0,9 107 - 0,0 118 1.019,7
07:23 9,3 6,6 8,2 83,0 1,0 158 - 0,0 116 1.019,7
07:22 9,3 6,6 8,2 83,0 0,7 107 - 0,0 114 1.019,7
07:21 9,3 6,5 8,2 83,0 0,8 98 - 0,0 114 1.019,7
07:20 9,3 6,5 8,2 83,0 1,0 126 - 0,0 109 1.019,7
07:19 9,3 6,5 8,2 83,0 1,6 80 - 0,0 107 1.019,7
07:18 9,3 6,5 8,2 83,0 1,6 94 - 0,0 107 1.019,7
07:17 9,3 6,5 8,1 83,0 0,9 105 - 0,0 104 1.019,7
07:16 9,2 6,5 8,1 83,0 0,1 220 - 0,0 102 1.019,7
07:15 9,2 6,5 8,1 83,0 0,4 315 - 0,0 101 1.019,7
07:14 9,2 6,5 8,1 83,0 0,6 326 - 0,0 99 1.019,7
07:13 9,2 6,5 8,1 83,0 0,3 262 - 0,0 95 1.019,8
07:12 9,2 6,5 8,1 83,0 0,3 104 - 0,0 95 1.019,7
07:11 9,2 6,5 8,1 83,0 0,7 88 - 0,0 94 1.019,7
07:10 9,2 6,4 8,1 83,0 0,5 138 - 0,0 92 1.019,7
07:09 9,2 6,4 8,1 83,0 0,3 249 - 0,0 90 1.019,7
07:08 9,2 6,4 8,1 83,0 0,7 292 - 0,0 89 1.019,7
07:07 9,2 6,4 8,0 83,0 0,4 248 - 0,0 88 1.019,7
07:06 9,1 6,4 8,0 83,0 0,3 24 - 0,0 82 1.019,7
07:05 9,1 6,4 8,0 83,0 0,5 118 - 0,0 71 1.019,7
07:04 9,1 6,4 8,0 83,0 0,3 206 - 0,0 68 1.019,7
07:03 9,1 6,4 8,0 83,0 0,2 30 - 0,0 72 1.019,7
07:02 9,1 6,4 8,0 83,0 0,5 81 - 0,0 75 1.019,7
07:01 9,1 6,4 8,0 83,0 0,7 123 - 0,0 76 1.019,7
07:00 9,1 6,3 7,9 83,0 0,9 103 - 0,0 74 1.019,7
 
06:59 9,1 6,3 7,9 83,0 0,9 114 - 0,0 72 1.019,6
06:58 9,1 6,3 7,9 83,0 0,8 126 - 0,0 71 1.019,6
06:57 9,1 6,3 7,9 83,0 0,7 85 - 0,0 69 1.019,6
06:56 9,0 6,3 7,9 83,0 0,6 125 - 0,0 66 1.019,6
06:55 9,0 6,3 7,9 83,0 0,4 205 - 0,0 65 1.019,6
06:54 9,0 6,3 7,9 83,0 0,1 330 - 0,0 65 1.019,6
06:53 9,0 6,3 7,9 83,0 0,6 73 - 0,0 63 1.019,6
06:52 9,0 6,3 7,9 83,0 0,5 98 - 0,0 61 1.019,6
06:51 9,0 6,3 7,9 83,0 0,2 292 - 0,0 59 1.019,6
06:50 9,0 6,3 7,9 83,0 0,5 155 - 0,0 57 1.019,6
06:49 9,0 6,2 7,8 83,0 1,2 163 - 0,0 56 1.019,6
06:48 9,0 6,2 7,8 83,0 1,5 94 - 0,0 54 1.019,6
06:47 9,0 6,2 7,8 83,0 1,1 91 - 0,0 52 1.019,6
06:46 8,9 6,2 7,8 83,0 0,4 234 - 0,0 50 1.019,5
06:45 9,0 6,2 7,8 83,0 0,8 208 - 0,0 49 1.019,5
06:44 8,9 6,2 7,8 83,0 0,5 277 - 0,0 47 1.019,6
06:43 8,9 6,2 7,8 83,0 0,4 134 - 0,0 46 1.019,6
06:42 9,0 6,2 7,8 83,0 0,5 150 - 0,0 44 1.019,5
06:41 9,0 6,2 7,8 83,0 0,4 248 - 0,0 42 1.019,5
06:40 8,9 6,2 7,8 83,0 0,7 95 - 0,0 41 1.019,6
06:39 8,9 6,2 7,8 83,0 0,9 110 - 0,0 39 1.019,5
06:38 8,9 6,2 7,8 83,0 0,8 186 - 0,0 39 1.019,5
06:37 9,0 6,2 7,8 83,0 0,7 79 - 0,0 37 1.019,5
06:36 8,9 6,2 7,8 83,0 0,9 101 - 0,0 35 1.019,5
06:35 8,9 6,2 7,8 83,0 0,8 109 - 0,0 33 1.019,5
06:34 8,9 6,2 7,8 83,0 0,8 44 - 0,0 32 1.019,6
06:33 8,9 6,2 7,8 83,0 1,0 140 - 0,0 31 1.019,6
06:32 8,9 6,1 7,8 82,5 1,2 107 - 0,0 30 1.019,6
06:31 8,9 6,1 7,8 82,7 1,1 112 - 0,0 28 1.019,6
06:30 8,9 6,1 7,8 82,3 0,9 134 - 0,0 26 1.019,6
06:29 8,9 6,0 7,7 82,0 1,0 157 - 0,0 26 1.019,5
06:28 8,9 6,0 7,7 82,0 0,9 127 - 0,0 24 1.019,6
06:27 8,9 6,0 7,7 82,0 1,0 91 - 0,0 23 1.019,5
06:26 8,9 6,0 7,7 82,0 0,9 105 - 0,0 21 1.019,5
06:25 8,9 6,0 7,7 82,0 0,8 104 - 0,0 21 1.019,5
06:24 8,9 6,0 7,7 82,0 0,6 103 - 0,0 19 1.019,5
06:23 8,9 6,0 7,7 82,0 0,7 140 - 0,0 19 1.019,5
06:22 8,9 6,0 7,7 82,0 1,0 101 - 0,0 18 1.019,5
06:21 8,9 6,0 7,7 82,0 1,1 109 - 0,0 17 1.019,5
06:20 8,9 6,0 7,7 82,0 1,1 107 - 0,0 16 1.019,5
06:19 8,9 6,0 7,7 82,0 1,0 93 - 0,0 14 1.019,5
06:18 8,9 6,0 7,7 82,0 0,9 111 - 0,0 14 1.019,5
06:17 8,9 6,0 7,7 82,0 0,7 82 - 0,0 14 1.019,5
06:16 8,9 6,0 7,7 82,0 0,7 98 - 0,0 14 1.019,5
06:15 8,9 6,0 7,7 82,0 1,0 115 - 0,0 13 1.019,5
06:14 8,9 6,0 7,7 82,0 1,0 105 - 0,0 12 1.019,5
06:13 8,9 6,0 7,7 82,0 0,9 107 - 0,0 12 1.019,5
06:12 8,9 6,0 7,7 82,0 1,0 116 - 0,0 12 1.019,5
06:11 8,9 6,0 7,7 81,9 1,1 105 - 0,0 11 1.019,5
06:10 9,0 5,9 7,7 81,0 1,1 99 - 0,0 11 1.019,5
06:09 9,0 5,9 7,7 81,0 1,1 120 - 0,0 11 1.019,5
06:08 9,0 5,9 7,7 81,0 1,0 124 - 0,0 9 1.019,5
06:07 9,0 5,9 7,7 81,0 0,9 127 - 0,0 9 1.019,5
06:06 9,0 5,9 7,7 81,0 0,8 117 - 0,0 9 1.019,5
06:05 9,0 5,9 7,7 81,0 0,8 113 - 0,0 9 1.019,5
06:04 9,0 5,9 7,7 81,0 0,8 113 - 0,0 9 1.019,5
06:03 9,0 5,9 7,7 81,0 0,8 78 - 0,0 9 1.019,5
06:02 9,0 5,9 7,7 81,0 1,0 109 - 0,0 7 1.019,4
06:01 9,0 5,9 7,7 81,0 1,2 103 - 0,0 7 1.019,4
06:00 9,0 6,0 7,7 81,0 1,1 85 - 0,0 7 1.019,5
 
05:59 9,0 6,0 7,7 81,0 0,8 110 - 0,0 7 1.019,5
05:58 9,0 6,0 7,7 81,0 0,5 108 - 0,0 7 1.019,5
05:57 9,1 6,0 7,8 81,0 0,9 227 - 0,0 5 1.019,5
05:56 9,1 6,0 7,8 81,0 1,3 166 - 0,0 5 1.019,5
05:55 9,1 6,0 7,8 81,0 1,3 141 - 0,0 5 1.019,6
05:54 9,1 6,0 7,8 80,9 0,9 97 - 0,0 5 1.019,5
05:53 9,1 5,9 7,7 80,0 0,5 208 - 0,0 5 1.019,5
05:52 9,1 5,9 7,8 80,0 0,3 73 - 0,0 5 1.019,6
05:51 9,2 5,9 7,8 80,0 0,3 257 - 0,0 1 1.019,5
05:50 9,2 5,9 7,8 80,0 0,6 163 - 0,0 0 1.019,5
05:49 9,2 5,9 7,8 80,0 1,1 101 - 0,0 0 1.019,6
05:48 9,2 6,0 7,8 80,0 0,9 103 - 0,0 0 1.019,6
05:47 9,2 6,0 7,8 80,0 0,9 210 - 0,0 0 1.019,5
05:46 9,2 6,0 7,9 80,0 1,0 190 - 0,0 0 1.019,5
05:45 9,3 6,0 7,9 80,0 1,3 113 - 0,0 0 1.019,5
05:44 9,3 6,0 7,9 80,0 1,4 106 - 0,0 0 1.019,5
05:43 9,3 6,0 7,9 80,0 1,4 103 - 0,0 0 1.019,5
05:42 9,3 6,1 7,9 80,0 1,4 122 - 0,0 0 1.019,5
05:41 9,3 6,1 7,9 80,0 1,4 99 - 0,0 0 1.019,5
05:40 9,3 6,1 7,9 80,0 1,2 102 - 0,0 0 1.019,5
05:39 9,4 6,1 8,0 80,0 1,1 97 - 0,0 0 1.019,5
05:38 9,4 6,0 7,9 79,3 1,2 146 - 0,0 0 1.019,6
05:37 9,4 6,0 7,9 79,0 1,5 94 - 0,0 0 1.019,6
05:36 9,4 6,0 7,9 79,0 1,7 111 - 0,0 0 1.019,5
05:35 9,4 6,0 7,9 79,0 1,7 103 - 0,0 0 1.019,5
05:34 9,4 6,0 8,0 79,0 1,5 104 - 0,0 0 1.019,5
05:33 9,4 6,0 8,0 79,0 1,4 111 - 0,0 0 1.019,5
05:32 9,4 6,0 8,0 79,0 1,4 99 - 0,0 0 1.019,5
05:31 9,4 6,0 8,0 79,0 1,5 74 - 0,0 0 1.019,5
05:30 9,4 6,0 8,0 79,0 1,6 111 - 0,0 0 1.019,5
05:29 9,5 6,0 8,0 79,0 1,6 107 - 0,0 0 1.019,5
05:28 9,5 6,0 8,0 79,0 1,5 105 - 0,0 0 1.019,5
05:27 9,5 6,1 8,0 79,0 1,4 102 - 0,0 0 1.019,5
05:26 9,5 6,1 8,0 79,0 1,5 103 - 0,0 0 1.019,5
05:25 9,5 6,1 8,0 79,0 1,6 101 - 0,0 0 1.019,5
05:24 9,5 6,1 8,0 79,0 1,5 100 - 0,0 0 1.019,5
05:23 9,6 6,1 8,1 79,0 1,3 107 - 0,0 0 1.019,5
05:22 9,6 6,1 8,1 79,0 1,1 96 - 0,0 0 1.019,5
05:21 9,6 6,1 8,1 79,0 1,0 108 - 0,0 0 1.019,6
05:20 9,6 6,1 8,1 79,0 0,9 105 - 0,0 0 1.019,6
05:19 9,6 6,1 8,1 79,0 0,9 105 - 0,0 0 1.019,6
05:18 9,6 6,1 8,1 79,0 0,9 104 - 0,0 0 1.019,6
05:17 9,6 6,2 8,1 79,0 0,7 103 - 0,0 0 1.019,6
05:16 9,6 6,2 8,1 79,0 0,7 104 - 0,0 0 1.019,6
05:15 9,6 6,2 8,1 79,0 0,7 107 - 0,0 0 1.019,6
05:14 9,6 6,2 8,1 79,0 0,9 104 - 0,0 0 1.019,6
05:13 9,6 6,2 8,1 79,0 0,9 103 - 0,0 0 1.019,6
05:12 9,6 6,1 8,1 78,8 0,9 105 - 0,0 0 1.019,6
05:11 9,7 6,0 8,1 78,0 1,1 99 - 0,0 0 1.019,6
05:10 9,7 6,0 8,1 78,0 1,2 105 - 0,0 0 1.019,6
05:09 9,7 6,0 8,1 78,0 1,2 106 - 0,0 0 1.019,6
05:08 9,7 6,1 8,1 78,0 1,3 101 - 0,0 0 1.019,6
05:07 9,7 6,1 8,1 78,0 1,6 101 - 0,0 0 1.019,6
05:06 9,7 6,1 8,1 78,0 1,6 101 - 0,0 0 1.019,6
05:05 9,7 6,1 8,1 78,0 1,8 174 - 0,0 0 1.019,6
05:04 9,8 6,1 8,2 78,0 1,8 83 - 0,0 0 1.019,6
05:03 9,8 6,2 8,2 78,0 2,2 115 - 0,0 0 1.019,6
05:02 9,8 6,2 8,2 78,0 1,9 97 - 0,0 0 1.019,6
05:01 9,8 6,2 8,2 78,0 1,8 103 - 0,0 0 1.019,6
05:00 9,8 6,2 8,2 78,0 1,6 86 - 0,0 0 1.019,6
 
04:59 9,8 6,2 8,2 78,0 1,6 105 - 0,0 0 1.019,5
04:58 9,8 6,2 8,2 78,0 1,7 116 - 0,0 0 1.019,5
04:57 9,9 6,2 8,3 78,0 1,8 122 - 0,0 0 1.019,5
04:56 9,9 6,3 8,3 78,0 1,9 96 - 0,0 0 1.019,6
04:55 9,9 6,3 8,3 78,0 2,1 97 - 0,0 0 1.019,6
04:54 9,9 6,3 8,3 78,0 2,3 106 - 0,0 0 1.019,6
04:53 9,9 6,3 8,3 78,0 2,2 117 - 0,0 0 1.019,6
04:52 9,9 6,3 8,3 78,0 2,1 96 - 0,0 0 1.019,6
04:51 10,0 6,3 8,4 78,0 2,0 112 - 0,0 0 1.019,6
04:50 10,0 6,4 8,4 78,0 1,9 98 - 0,0 0 1.019,6
04:49 10,0 6,4 8,4 78,0 1,8 91 - 0,0 0 1.019,6
04:48 10,0 6,4 8,4 78,0 1,9 86 - 0,0 0 1.019,5
04:47 10,1 6,4 8,5 78,0 1,9 93 - 0,0 0 1.019,6
04:46 10,1 6,4 8,5 78,0 1,9 104 - 0,0 0 1.019,6
04:45 10,1 6,4 8,5 78,0 1,8 109 - 0,0 0 1.019,6
04:44 10,1 6,5 8,5 78,0 1,6 100 - 0,0 0 1.019,6
04:43 10,1 6,3 8,4 77,1 1,4 101 - 0,0 0 1.019,5
04:42 10,1 6,3 8,4 77,0 1,5 105 - 0,0 0 1.019,6
04:41 10,2 6,3 8,5 77,0 1,7 111 - 0,0 0 1.019,7
04:40 10,2 6,3 8,5 77,0 1,8 93 - 0,0 0 1.019,6
04:39 10,2 6,3 8,5 77,0 1,8 113 - 0,0 0 1.019,6
04:38 10,2 6,4 8,5 77,0 2,0 98 - 0,0 0 1.019,6
04:37 10,2 6,4 8,5 77,0 2,1 99 - 0,0 0 1.019,6
04:36 10,2 6,4 8,5 77,0 2,0 93 - 0,0 0 1.019,6
04:35 10,3 6,4 8,6 77,0 2,1 97 - 0,0 0 1.019,6
04:34 10,2 6,4 8,5 77,0 2,1 98 - 0,0 0 1.019,6
04:33 10,3 6,5 8,6 77,0 2,0 91 - 0,0 0 1.019,6
04:32 10,3 6,5 8,6 77,0 1,7 103 - 0,0 0 1.019,6
04:31 10,3 6,5 8,6 77,0 1,5 93 - 0,0 0 1.019,6
04:30 10,3 6,5 8,6 77,0 1,4 103 - 0,0 0 1.019,6
04:29 10,3 6,5 8,6 77,0 1,5 102 - 0,0 0 1.019,6
04:28 10,3 6,5 8,6 77,0 1,6 95 - 0,0 0 1.019,7
04:27 10,3 6,5 8,6 77,0 1,7 105 - 0,0 0 1.019,6
04:26 10,3 6,5 8,6 77,0 1,8 93 - 0,0 0 1.019,6
04:25 10,3 6,5 8,6 77,0 1,7 105 - 0,0 0 1.019,6
04:24 10,3 6,5 8,6 77,0 1,5 103 - 0,0 0 1.019,6
04:23 10,3 6,5 8,6 77,0 1,2 104 - 0,0 0 1.019,7
04:22 10,4 6,6 8,7 77,0 1,0 107 - 0,0 0 1.019,7
04:21 10,3 6,5 8,6 77,0 1,0 110 - 0,0 0 1.019,6
04:20 10,4 6,6 8,7 77,0 1,0 106 - 0,0 0 1.019,6
04:19 10,4 6,6 8,7 77,0 1,0 107 - 0,0 0 1.019,6
04:18 10,4 6,6 8,7 77,0 1,0 101 - 0,0 0 1.019,6
04:17 10,4 6,6 8,7 77,0 1,0 107 - 0,0 0 1.019,6
04:16 10,4 6,6 8,7 77,0 0,9 107 - 0,0 0 1.019,6
04:15 10,4 6,6 8,7 77,0 0,8 107 - 0,0 0 1.019,6
04:14 10,4 6,6 8,7 77,0 0,7 107 - 0,0 0 1.019,6
04:13 10,4 6,6 8,7 77,0 0,8 97 - 0,0 0 1.019,6
04:12 10,4 6,6 8,7 77,0 0,9 118 - 0,0 0 1.019,6
04:11 10,4 6,6 8,7 77,0 1,0 101 - 0,0 0 1.019,5
04:10 10,4 6,6 8,7 77,0 1,1 105 - 0,0 0 1.019,6
04:09 10,4 6,4 8,6 76,1 1,1 100 - 0,0 0 1.019,6
04:08 10,4 6,4 8,6 76,0 1,1 105 - 0,0 0 1.019,6
04:07 10,5 6,4 8,6 76,0 1,1 108 - 0,0 0 1.019,6
04:06 10,5 6,4 8,6 76,0 1,0 133 - 0,0 0 1.019,6
04:05 10,5 6,5 8,7 76,0 0,7 105 - 0,0 0 1.019,6
04:04 10,5 6,5 8,7 76,0 0,5 107 - 0,0 0 1.019,6
04:03 10,5 6,5 8,7 76,0 0,5 118 - 0,0 0 1.019,6
04:02 10,5 6,5 8,7 76,0 0,5 114 - 0,0 0 1.019,6
04:01 10,6 6,5 8,7 76,0 0,5 117 - 0,0 0 1.019,6
04:00 10,6 6,5 8,7 76,0 0,4 122 - 0,0 0 1.019,6
 
03:59 10,6 6,5 8,7 76,0 0,5 122 - 0,0 0 1.019,6
03:58 10,6 6,5 8,7 76,0 0,6 101 - 0,0 0 1.019,6
03:57 10,6 6,6 8,8 76,0 0,6 107 - 0,0 0 1.019,6
03:56 10,6 6,6 8,8 76,0 0,6 97 - 0,0 0 1.019,6
03:55 10,6 6,6 8,8 76,0 0,5 78 - 0,0 0 1.019,6
03:54 10,6 6,6 8,8 76,0 0,6 113 - 0,0 0 1.019,6
03:53 10,7 6,6 8,9 76,0 0,7 113 - 0,0 0 1.019,6
03:52 10,7 6,6 8,9 76,0 0,7 69 - 0,0 0 1.019,7
03:51 10,7 6,5 8,8 75,1 0,5 87 - 0,0 0 1.019,7
03:50 10,7 6,5 8,8 75,0 0,6 172 - 0,0 0 1.019,7
03:49 10,7 6,5 8,8 75,0 0,7 110 - 0,0 0 1.019,7
03:48 10,7 6,5 8,8 75,0 0,6 105 - 0,0 0 1.019,7
03:47 10,7 6,5 8,8 75,0 0,5 84 - 0,0 0 1.019,7
03:46 10,7 6,5 8,8 75,0 0,5 99 - 0,0 0 1.019,7
03:45 10,8 6,6 8,9 75,0 0,6 137 - 0,0 0 1.019,7
03:44 10,8 6,6 8,9 75,0 0,8 128 - 0,0 0 1.019,6
03:43 10,8 6,6 8,9 75,0 0,9 109 - 0,0 0 1.019,6
03:42 10,8 6,6 8,9 75,0 1,0 113 - 0,0 0 1.019,6
03:41 10,8 6,6 8,9 75,0 0,8 106 - 0,0 0 1.019,6
03:40 10,8 6,6 8,9 75,0 0,8 82 - 0,0 0 1.019,6
03:39 10,8 6,6 8,9 75,0 0,8 109 - 0,0 0 1.019,6
03:38 10,9 6,7 9,0 75,0 0,6 104 - 0,0 0 1.019,6
03:37 10,9 6,7 9,0 75,0 0,5 197 - 0,0 0 1.019,6
03:36 10,9 6,7 9,0 75,0 0,7 120 - 0,0 0 1.019,6
03:34 10,9 6,5 8,9 74,0 0,9 100 - 0,0 0 1.019,7
03:33 10,9 6,5 8,9 74,0 0,8 144 - 0,0 0 1.019,6
03:32 10,9 6,5 8,9 74,0 0,4 102 - 0,0 0 1.019,6
03:31 11,0 6,6 9,0 74,0 0,2 267 - 0,0 0 1.019,6
03:30 11,0 6,6 9,0 74,0 0,4 80 - 0,0 0 1.019,6
03:29 11,0 6,6 9,0 74,0 0,7 150 - 0,0 0 1.019,6
03:28 11,0 6,6 9,0 74,0 0,6 34 - 0,0 0 1.019,6
03:27 11,0 6,6 9,0 74,0 0,7 69 - 0,0 0 1.019,6
03:26 11,0 6,6 9,0 74,0 0,7 152 - 0,0 0 1.019,6
03:25 11,1 6,6 9,0 74,0 0,6 107 - 0,0 0 1.019,7
03:24 11,1 6,6 9,0 74,0 0,6 73 - 0,0 0 1.019,6
03:23 11,1 6,6 9,0 74,0 0,3 24 - 0,0 0 1.019,6
03:22 11,1 6,7 9,1 74,0 0,3 192 - 0,0 0 1.019,6
03:21 11,1 6,7 9,1 74,0 0,2 201 - 0,0 0 1.019,6
03:20 11,1 6,7 9,1 74,0 0,5 30 - 0,0 0 1.019,6
03:19 11,1 6,7 9,1 74,0 0,8 110 - 0,0 0 1.019,6
03:18 11,1 6,7 9,1 74,0 0,7 93 - 0,0 0 1.019,6
03:17 11,1 6,7 9,1 74,0 0,5 147 - 0,0 0 1.019,6
03:16 11,2 6,7 9,1 74,0 0,4 117 - 0,0 0 1.019,6
03:15 11,2 6,8 9,1 74,0 0,4 238 - 0,0 0 1.019,6
03:14 11,2 6,8 9,1 74,0 0,6 123 - 0,0 0 1.019,6
03:13 11,2 6,8 9,1 74,0 0,3 185 - 0,0 0 1.019,6
03:12 11,2 6,8 9,1 74,0 0,3 355 - 0,0 0 1.019,6
03:11 11,2 6,8 9,1 74,0 0,7 272 - 0,0 0 1.019,6
03:10 11,2 6,8 9,2 74,0 0,8 299 - 0,0 0 1.019,6
03:09 11,2 6,8 9,2 74,0 0,3 280 - 0,0 0 1.019,7
03:08 11,2 6,8 9,2 74,0 0,1 107 - 0,0 0 1.019,7
03:07 11,2 6,8 9,2 74,0 0,4 316 - 0,0 0 1.019,7
03:06 11,2 6,8 9,2 74,0 0,1 60 - 0,0 0 1.019,7
03:05 11,2 6,8 9,2 74,0 0,4 208 - 0,0 0 1.019,7
03:04 11,3 6,8 9,2 73,8 0,8 70 - 0,0 0 1.019,7
03:03 11,3 6,7 9,1 73,0 0,8 131 - 0,0 0 1.019,7
03:02 11,3 6,7 9,1 73,0 0,9 222 - 0,0 0 1.019,7
03:01 11,3 6,7 9,1 73,0 0,7 151 - 0,0 0 1.019,6
03:00 11,3 6,7 9,1 73,0 0,8 97 - 0,0 0 1.019,6
 
02:59 11,3 6,7 9,1 73,0 0,7 165 - 0,0 0 1.019,6
02:58 11,3 6,7 9,2 73,0 0,5 56 - 0,0 0 1.019,6
02:57 11,3 6,7 9,2 73,0 0,3 313 - 0,0 0 1.019,6
02:56 11,3 6,7 9,2 73,0 0,3 151 - 0,0 0 1.019,6
02:55 11,3 6,7 9,2 73,0 1,0 80 - 0,0 0 1.019,6
02:54 11,4 6,7 9,2 73,0 1,1 104 - 0,0 0 1.019,6
02:53 11,4 6,7 9,2 73,0 1,1 111 - 0,0 0 1.019,6
02:52 11,4 6,8 9,2 73,0 1,1 126 - 0,0 0 1.019,7
02:51 11,4 6,8 9,3 73,0 0,5 151 - 0,0 0 1.019,7
02:50 11,4 6,8 9,3 73,0 0,1 303 - 0,0 0 1.019,7
02:49 11,4 6,8 9,3 73,0 0,6 83 - 0,0 0 1.019,6
02:48 11,4 6,8 9,3 73,0 1,1 108 - 0,0 0 1.019,6
02:47 11,4 6,8 9,3 73,0 1,0 106 - 0,0 0 1.019,6
02:46 11,5 6,9 9,3 73,0 0,9 111 - 0,0 0 1.019,6
02:45 11,5 6,9 9,3 73,0 0,9 178 - 0,0 0 1.019,6
02:44 11,5 6,9 9,3 73,0 0,8 79 - 0,0 0 1.019,6
02:43 11,5 6,9 9,3 73,0 0,6 212 - 0,0 0 1.019,6
02:42 11,5 6,9 9,4 73,0 0,7 279 - 0,0 0 1.019,6
02:41 11,5 6,9 9,4 73,0 0,6 126 - 0,0 0 1.019,6
02:40 11,6 6,9 9,4 73,0 0,9 120 - 0,0 0 1.019,6
02:39 11,6 6,9 9,4 73,0 0,5 206 - 0,0 0 1.019,6
02:38 11,6 6,9 9,4 72,6 0,7 61 - 0,0 0 1.019,6
02:37 11,6 6,8 9,3 72,0 0,5 114 - 0,0 0 1.019,6
02:36 11,6 6,8 9,3 72,0 0,2 288 - 0,0 0 1.019,6
02:35 11,6 6,8 9,3 72,0 0,6 111 - 0,0 0 1.019,6
02:34 11,6 6,8 9,4 72,0 1,2 118 - 0,0 0 1.019,6
02:33 11,6 6,8 9,4 72,0 1,1 43 - 0,0 0 1.019,6
02:32 11,7 6,8 9,4 72,0 0,6 92 - 0,0 0 1.019,5
02:31 11,7 6,8 9,4 72,0 0,3 276 - 0,0 0 1.019,6
02:30 11,7 6,9 9,4 72,0 0,6 116 - 0,0 0 1.019,6
02:29 11,7 6,9 9,5 72,0 1,2 95 - 0,0 0 1.019,6
02:28 11,7 6,9 9,5 72,0 1,2 88 - 0,0 0 1.019,6
02:27 11,7 6,9 9,5 72,0 1,2 107 - 0,0 0 1.019,6
02:26 11,8 6,9 9,5 72,0 1,1 101 - 0,0 0 1.019,6
02:25 11,8 6,9 9,5 72,0 1,0 76 - 0,0 0 1.019,6
02:24 11,8 6,9 9,5 72,0 1,0 152 - 0,0 0 1.019,6
02:23 11,8 6,9 9,5 72,0 0,9 103 - 0,0 0 1.019,6
02:22 11,8 6,9 9,5 72,0 0,9 105 - 0,0 0 1.019,6
02:21 11,8 6,9 9,5 72,0 0,9 105 - 0,0 0 1.019,6
02:20 11,8 6,9 9,5 72,0 0,9 120 - 0,0 0 1.019,6
02:19 11,8 6,9 9,5 72,0 0,9 182 - 0,0 0 1.019,6
02:18 11,8 7,0 9,5 72,0 0,8 99 - 0,0 0 1.019,5
02:17 11,8 7,0 9,5 72,0 0,6 173 - 0,0 0 1.019,6
02:16 11,8 7,0 9,5 72,0 0,7 215 - 0,0 0 1.019,6
02:15 11,8 7,0 9,5 72,0 0,7 133 - 0,0 0 1.019,5
02:14 11,8 6,9 9,5 71,5 0,5 151 - 0,0 0 1.019,6
02:13 11,8 6,8 9,5 71,0 0,4 2 - 0,0 0 1.019,5
02:12 11,8 6,8 9,5 71,0 0,6 288 - 0,0 0 1.019,5
02:11 11,9 6,8 9,5 71,0 0,5 126 - 0,0 0 1.019,4
02:10 11,9 6,8 9,5 71,0 1,1 107 - 0,0 0 1.019,5
02:09 11,9 6,9 9,5 71,0 0,7 245 - 0,0 0 1.019,4
02:08 11,9 6,9 9,5 71,0 0,5 126 - 0,0 0 1.019,4
02:07 11,9 6,9 9,5 71,0 0,5 255 - 0,0 0 1.019,4
02:06 11,9 6,9 9,5 71,0 0,4 170 - 0,0 0 1.019,4
02:05 11,9 6,9 9,5 71,0 0,6 103 - 0,0 0 1.019,4
02:04 11,9 6,9 9,6 71,0 0,4 186 - 0,0 0 1.019,4
02:03 11,9 6,9 9,6 71,0 0,5 285 - 0,0 0 1.019,4
02:02 12,0 6,9 9,6 71,0 0,6 151 - 0,0 0 1.019,4
02:01 12,0 6,9 9,6 71,0 0,9 111 - 0,0 0 1.019,4
02:00 12,0 6,9 9,6 71,0 0,4 255 - 0,0 0 1.019,4
 
01:59 12,0 6,9 9,6 71,0 0,5 227 - 0,0 0 1.019,4
01:58 12,0 7,0 9,6 71,0 0,6 171 - 0,0 0 1.019,4
01:57 12,0 7,0 9,6 71,0 0,9 135 - 0,0 0 1.019,3
01:56 12,0 7,0 9,6 71,0 0,8 163 - 0,0 0 1.019,3
01:55 12,0 7,0 9,7 71,0 0,8 179 - 0,0 0 1.019,4
01:54 12,1 7,0 9,7 71,0 0,8 175 - 0,0 0 1.019,3
01:53 12,1 7,0 9,7 71,0 0,8 101 - 0,0 0 1.019,3
01:52 12,1 7,0 9,7 71,0 0,7 190 - 0,0 0 1.019,3
01:51 12,1 7,0 9,7 71,0 1,0 76 - 0,0 0 1.019,3
01:50 12,1 7,0 9,7 71,0 0,9 121 - 0,0 0 1.019,3
01:49 12,1 7,1 9,7 71,0 0,6 258 - 0,0 0 1.019,3
01:48 12,1 6,9 9,6 70,1 0,5 112 - 0,0 0 1.019,4
01:47 12,1 6,9 9,6 70,0 0,5 161 - 0,0 0 1.019,4
01:46 12,2 6,9 9,6 70,0 0,3 276 - 0,0 0 1.019,3
01:45 12,2 6,9 9,6 70,0 0,7 99 - 0,0 0 1.019,3
01:44 12,2 6,9 9,7 70,0 1,3 109 - 0,0 0 1.019,3
01:43 12,2 6,9 9,7 70,0 1,4 69 - 0,0 0 1.019,4
01:42 12,2 6,9 9,7 70,0 1,1 106 - 0,0 0 1.019,4
01:41 12,2 6,9 9,7 70,0 0,8 203 - 0,0 0 1.019,3
01:40 12,2 7,0 9,7 70,0 0,3 135 - 0,0 0 1.019,3
01:39 12,2 7,0 9,7 70,0 0,3 9 - 0,0 0 1.019,3
01:38 12,2 7,0 9,7 70,0 0,6 168 - 0,0 0 1.019,3
01:37 12,2 7,0 9,7 70,0 0,8 190 - 0,0 0 1.019,3
01:36 12,3 7,0 9,7 70,0 0,2 311 - 0,0 0 1.019,3
01:35 12,3 7,0 9,8 70,0 0,5 88 - 0,0 0 1.019,3
01:34 12,3 7,0 9,8 70,0 0,9 112 - 0,0 0 1.019,3
01:33 12,3 7,1 9,8 70,0 0,9 185 - 0,0 0 1.019,3
01:32 12,3 7,1 9,8 70,0 0,9 88 - 0,0 0 1.019,3
01:31 12,3 7,1 9,8 70,0 0,6 90 - 0,0 0 1.019,3
01:30 12,4 7,1 9,9 70,0 0,6 301 - 0,0 0 1.019,3
01:29 12,4 7,1 9,9 70,0 0,5 84 - 0,0 0 1.019,3
01:28 12,4 7,1 9,9 70,0 0,3 299 - 0,0 0 1.019,3
01:27 12,4 7,2 9,9 70,0 1,3 272 - 0,0 0 1.019,3
01:26 12,5 7,1 9,9 69,3 0,8 299 - 0,0 0 1.019,4
01:25 12,5 7,0 9,8 69,0 0,6 153 - 0,0 0 1.019,4
01:24 12,5 7,0 9,9 69,0 0,8 271 - 0,0 0 1.019,4
01:23 12,5 7,1 9,9 69,0 0,8 263 - 0,0 0 1.019,4
01:22 12,6 7,1 9,9 69,0 0,8 157 - 0,0 0 1.019,4
01:21 12,6 7,1 9,9 69,0 0,7 135 - 0,0 0 1.019,4
01:20 12,6 7,1 9,9 69,0 0,3 266 - 0,0 0 1.019,4
01:19 12,6 7,1 9,9 69,0 0,8 303 - 0,0 0 1.019,4
01:18 12,6 7,1 10,0 69,0 0,5 232 - 0,0 0 1.019,5
01:17 12,6 7,2 10,0 69,0 0,7 120 - 0,0 0 1.019,5
01:16 12,7 7,2 10,0 69,0 0,6 196 - 0,0 0 1.019,5
01:15 12,7 7,2 10,1 69,0 0,8 263 - 0,0 0 1.019,5
01:14 12,7 7,2 10,1 69,0 0,6 188 - 0,0 0 1.019,5
01:13 12,7 7,2 10,1 69,0 0,6 123 - 0,0 0 1.019,4
01:12 12,7 7,2 10,1 69,0 0,6 91 - 0,0 0 1.019,4
01:11 12,7 7,2 10,1 69,0 0,6 149 - 0,0 0 1.019,4
01:10 12,7 7,3 10,1 69,0 0,9 161 - 0,0 0 1.019,5
01:09 12,8 7,3 10,1 69,0 1,1 151 - 0,0 0 1.019,5
01:08 12,8 7,3 10,1 69,0 1,0 124 - 0,0 0 1.019,4
01:07 12,8 7,3 10,1 69,0 0,8 106 - 0,0 0 1.019,4
01:06 12,8 7,3 10,2 69,0 0,3 168 - 0,0 0 1.019,4
01:05 12,8 7,4 10,2 69,0 0,3 310 - 0,0 0 1.019,3
01:04 12,8 7,4 10,2 69,0 0,3 169 - 0,0 0 1.019,4
01:03 12,8 7,4 10,2 69,0 0,2 255 - 0,0 0 1.019,4
01:02 12,9 7,4 10,2 69,0 0,3 355 - 0,0 0 1.019,4
01:01 12,9 7,4 10,2 69,0 0,7 68 - 0,0 0 1.019,4
01:00 12,9 7,4 10,2 68,8 0,9 89 - 0,0 0 1.019,4
 
00:59 12,9 7,2 10,1 68,0 0,7 95 - 0,0 0 1.019,4
00:58 12,9 7,2 10,1 68,0 0,5 7 - 0,0 0 1.019,4
00:57 13,0 7,3 10,2 68,0 0,5 97 - 0,0 0 1.019,4
00:56 13,0 7,3 10,2 68,0 0,7 67 - 0,0 0 1.019,4
00:55 13,0 7,3 10,2 68,0 0,9 91 - 0,0 0 1.019,4
00:54 13,0 7,3 10,2 68,0 0,9 103 - 0,0 0 1.019,4
00:53 13,0 7,3 10,2 68,0 0,7 103 - 0,0 0 1.019,4
00:52 13,0 7,3 10,2 68,0 0,7 141 - 0,0 0 1.019,4
00:51 13,0 7,3 10,2 68,0 0,9 130 - 0,0 0 1.019,4
00:50 13,1 7,4 10,3 68,0 0,9 132 - 0,0 0 1.019,4
00:49 13,1 7,4 10,3 68,0 0,2 202 - 0,0 0 1.019,5
00:48 13,1 7,4 10,3 68,0 0,5 4 - 0,0 0 1.019,5
00:47 13,1 7,4 10,3 68,0 0,8 99 - 0,0 0 1.019,5
00:46 13,1 7,4 10,3 68,0 0,5 90 - 0,0 0 1.019,5
00:45 13,1 7,4 10,3 68,0 0,4 228 - 0,0 0 1.019,5
00:44 13,2 7,5 10,4 68,0 0,4 224 - 0,0 0 1.019,5
00:43 13,2 7,3 10,3 67,1 0,7 101 - 0,0 0 1.019,5
00:42 13,2 7,3 10,3 67,0 1,1 82 - 0,0 0 1.019,5
00:41 13,2 7,3 10,3 67,0 1,1 58 - 0,0 0 1.019,5
00:40 13,2 7,3 10,3 67,0 1,1 89 - 0,0 0 1.019,5
00:39 13,2 7,3 10,3 67,0 0,8 95 - 0,0 0 1.019,5
00:38 13,3 7,3 10,3 67,0 0,7 199 - 0,0 0 1.019,5
00:37 13,3 7,4 10,4 67,0 0,8 96 - 0,0 0 1.019,5
00:36 13,3 7,4 10,4 67,0 0,9 120 - 0,0 0 1.019,5
00:35 13,4 7,4 10,4 67,0 0,8 176 - 0,0 0 1.019,5
00:34 13,4 7,5 10,5 67,0 0,9 80 - 0,0 0 1.019,5
00:33 13,4 7,4 10,4 67,0 1,0 101 - 0,0 0 1.019,5
00:32 13,4 7,5 10,5 67,0 0,9 119 - 0,0 0 1.019,5
00:31 13,4 7,5 10,5 67,0 1,0 124 - 0,0 0 1.019,5
00:30 13,5 7,5 10,5 66,7 1,1 145 - 0,0 0 1.019,5
00:29 13,5 7,3 10,4 66,0 1,1 110 - 0,0 0 1.019,5
00:28 13,5 7,4 10,5 66,0 1,3 112 - 0,0 0 1.019,6
00:27 13,6 7,4 10,5 66,0 1,6 133 - 0,0 0 1.019,6
00:26 13,6 7,4 10,5 66,0 1,5 105 - 0,0 0 1.019,6
00:25 13,6 7,4 10,5 66,0 1,2 118 - 0,0 0 1.019,6
00:24 13,6 7,4 10,5 66,0 1,1 103 - 0,0 0 1.019,6
00:23 13,6 7,5 10,6 66,0 1,2 113 - 0,0 0 1.019,6
00:22 13,7 7,5 10,6 66,0 1,3 103 - 0,0 0 1.019,6
00:21 13,7 7,5 10,6 66,0 1,1 103 - 0,0 0 1.019,6
00:20 13,7 7,5 10,6 66,0 1,0 151 - 0,0 0 1.019,6
00:19 13,7 7,6 10,7 66,0 0,9 106 - 0,0 0 1.019,6
00:18 13,8 7,6 10,7 66,0 0,7 144 - 0,0 0 1.019,6
00:17 13,8 7,6 10,7 66,0 0,7 195 - 0,0 0 1.019,6
00:16 13,8 7,7 10,7 66,0 0,8 172 - 0,0 0 1.019,5
00:15 13,8 7,7 10,7 66,0 0,8 165 - 0,0 0 1.019,5
00:14 13,8 7,5 10,6 65,1 0,9 103 - 0,0 0 1.019,5
00:13 13,9 7,5 10,6 65,0 1,0 145 - 0,0 0 1.019,5
00:12 13,9 7,5 10,7 65,0 0,5 105 - 0,0 0 1.019,5
00:11 13,9 7,5 10,7 65,0 0,4 318 - 0,0 0 1.019,5
00:10 13,9 7,5 10,7 65,0 0,4 95 - 0,0 0 1.019,5
00:09 14,0 7,6 10,7 65,0 0,9 116 - 0,0 0 1.019,5
00:08 14,0 7,6 10,8 65,0 0,9 111 - 0,0 0 1.019,6
00:07 14,0 7,6 10,8 65,0 0,4 120 - 0,0 0 1.019,6
00:06 14,0 7,6 10,8 65,0 0,1 310 - 0,0 0 1.019,6
00:05 14,0 7,6 10,8 65,0 0,7 98 - 0,0 0 1.019,5
00:04 14,0 7,6 10,8 65,0 1,2 86 - 0,0 0 1.019,6
00:03 14,1 7,7 10,8 65,0 0,5 168 - 0,0 0 1.019,6
00:02 14,1 7,7 10,9 65,0 0,3 275 - 0,0 0 1.019,6
00:01 14,1 7,7 10,9 65,0 0,6 93 - 0,0 0 1.019,5
00:00 14,1 7,7 10,9 65,0 1,0 93 - 0,0 0 1.019,5
 
23:59 14,1 7,7 10,9 65,0 0,5 172 - 0,0 0 1.019,5
23:58 14,1 7,7 10,9 65,0 0,6 40 - 0,0 0 1.019,5
23:57 14,1 7,5 10,8 64,2 0,5 101 - 0,0 0 1.019,5
23:56 14,2 7,5 10,8 64,0 0,2 292 - 0,0 0 1.019,5
23:55 14,2 7,5 10,8 64,0 0,7 239 - 0,0 0 1.019,5
23:54 14,2 7,6 10,8 64,0 0,8 303 - 0,0 0 1.019,5
23:53 14,2 7,6 10,9 64,0 0,4 312 - 0,0 0 1.019,5
23:52 14,3 7,6 10,9 64,0 0,6 110 - 0,0 0 1.019,5
23:51 14,3 7,6 10,9 64,0 0,9 112 - 0,0 0 1.019,5
23:50 14,3 7,7 10,9 64,0 0,8 213 - 0,0 0 1.019,5
23:49 14,3 7,7 10,9 64,0 0,3 122 - 0,0 0 1.019,5
23:48 14,3 7,7 11,0 64,0 0,4 338 - 0,0 0 1.019,4
23:47 14,3 7,7 11,0 64,0 0,5 106 - 0,0 0 1.019,4
23:46 14,4 7,7 11,0 64,0 0,5 111 - 0,0 0 1.019,4
23:45 14,4 7,8 11,0 64,0 0,5 326 - 0,0 0 1.019,4
23:44 14,4 7,8 11,1 64,0 0,7 28 - 0,0 0 1.019,4
23:43 14,4 7,8 11,1 64,0 0,7 280 - 0,0 0 1.019,4
23:42 14,4 7,8 11,1 64,0 0,2 329 - 0,0 0 1.019,4
23:41 14,5 7,8 11,1 64,0 0,6 109 - 0,0 0 1.019,4
23:40 14,5 7,8 11,1 64,0 0,8 78 - 0,0 0 1.019,4
23:39 14,5 7,9 11,1 64,0 0,6 91 - 0,0 0 1.019,4
23:38 14,5 7,8 11,1 63,8 0,5 90 - 0,0 0 1.019,4
23:37 14,6 7,7 11,0 63,0 0,6 208 - 0,0 0 1.019,4
23:36 14,6 7,7 11,0 63,0 0,9 100 - 0,0 0 1.019,4
23:35 14,6 7,7 11,1 63,0 0,8 101 - 0,0 0 1.019,4
23:34 14,6 7,7 11,1 63,0 0,4 282 - 0,0 0 1.019,4
23:33 14,6 7,8 11,1 63,0 0,5 93 - 0,0 0 1.019,4
23:32 14,7 7,8 11,1 63,0 1,0 84 - 0,0 0 1.019,4
23:31 14,7 7,8 11,1 63,0 0,6 99 - 0,0 0 1.019,4
23:30 14,7 7,8 11,2 63,0 0,6 313 - 0,0 0 1.019,4
23:29 14,8 7,7 11,1 62,4 0,7 103 - 0,0 0 1.019,4
23:28 14,8 7,8 11,2 62,8 1,1 69 - 0,0 0 1.019,4
23:27 14,8 7,7 11,1 62,1 1,0 94 - 0,0 0 1.019,3
23:26 14,8 7,7 11,2 62,0 1,2 95 - 0,0 0 1.019,3
23:25 14,8 7,7 11,2 62,0 1,2 99 - 0,0 0 1.019,3
23:24 14,9 7,7 11,2 62,0 0,6 134 - 0,0 0 1.019,3
23:23 14,9 7,7 11,2 62,0 0,5 245 - 0,0 0 1.019,3
23:22 14,9 7,8 11,2 62,0 0,7 133 - 0,0 0 1.019,3
23:21 14,9 7,8 11,2 62,0 0,6 120 - 0,0 0 1.019,3
23:20 14,9 7,8 11,3 62,0 0,3 300 - 0,0 0 1.019,3
23:19 15,0 7,8 11,3 62,0 0,4 115 - 0,0 0 1.019,3
23:18 15,0 7,9 11,3 62,0 0,8 78 - 0,0 0 1.019,3
23:17 15,0 7,9 11,3 62,0 0,6 71 - 0,0 0 1.019,3
23:16 15,0 7,7 11,2 61,2 0,2 302 - 0,0 0 1.019,3
23:15 15,1 7,7 11,2 61,0 0,5 249 - 0,0 0 1.019,3
23:14 15,1 7,7 11,2 61,0 0,8 270 - 0,0 0 1.019,3
23:13 15,1 7,7 11,3 61,0 0,6 272 - 0,0 0 1.019,3
23:12 15,1 7,7 11,3 61,0 0,4 155 - 0,0 0 1.019,4
23:11 15,1 7,7 11,3 61,0 0,6 118 - 0,0 0 1.019,4
23:10 15,1 7,7 11,3 61,0 0,3 89 - 0,0 0 1.019,3
23:09 15,2 7,8 11,3 61,0 0,3 242 - 0,0 0 1.019,3
23:08 15,2 7,8 11,3 61,0 0,6 109 - 0,0 0 1.019,3
23:07 15,2 7,8 11,3 61,0 1,2 105 - 0,0 0 1.019,3
23:06 15,2 7,8 11,4 61,0 1,2 79 - 0,0 0 1.019,3
23:05 15,2 7,8 11,4 61,0 0,9 100 - 0,0 0 1.019,3
23:04 15,2 7,8 11,4 61,0 0,5 66 - 0,0 0 1.019,2
23:03 15,2 7,8 11,4 61,0 0,4 80 - 0,0 0 1.019,2
23:02 15,2 7,8 11,4 61,0 0,3 3 - 0,0 0 1.019,3
23:01 15,2 7,8 11,4 61,0 0,2 108 - 0,0 0 1.019,3
23:00 15,3 7,9 11,4 61,0 0,1 262 - 0,0 0 1.019,3
 
22:59 15,3 7,9 11,4 61,0 0,2 256 - 0,0 0 1.019,3
22:58 15,3 7,9 11,4 61,0 0,3 256 - 0,0 0 1.019,2
22:57 15,3 7,9 11,4 61,0 0,5 262 - 0,0 0 1.019,2
22:56 15,3 7,9 11,4 61,0 0,3 262 - 0,0 0 1.019,2
22:55 15,3 7,9 11,4 61,0 0,3 105 - 0,0 0 1.019,2
22:54 15,3 7,9 11,4 61,0 0,7 129 - 0,0 0 1.019,2
22:53 15,3 7,9 11,4 61,0 0,8 111 - 0,0 0 1.019,2
22:52 15,3 7,9 11,4 61,0 0,7 117 - 0,0 0 1.019,2
22:51 15,3 7,9 11,4 61,0 0,4 101 - 0,0 0 1.019,2
22:50 15,3 7,9 11,4 61,0 0,2 228 - 0,0 0 1.019,2
22:49 15,3 7,9 11,5 61,0 0,2 112 - 0,0 0 1.019,2
22:48 15,3 7,9 11,4 61,0 0,5 101 - 0,0 0 1.019,1
22:47 15,3 8,1 11,5 61,8 0,3 140 - 0,0 0 1.019,1
22:46 15,3 8,1 11,6 62,0 0,2 279 - 0,0 0 1.019,1
22:45 15,3 8,2 11,6 62,0 0,3 91 - 0,0 0 1.019,1
22:44 15,3 8,1 11,6 62,0 0,7 93 - 0,0 0 1.019,1
22:43 15,3 8,1 11,6 62,0 1,0 94 - 0,0 0 1.019,1
22:42 15,3 8,1 11,6 62,0 1,5 121 - 0,0 0 1.019,1
22:41 15,3 8,1 11,6 62,0 1,4 136 - 0,0 0 1.019,1
22:40 15,3 8,1 11,5 62,0 0,9 86 - 0,0 0 1.019,1
22:39 15,2 8,1 11,5 62,0 0,8 144 - 0,0 0 1.019,1
22:38 15,2 8,1 11,5 62,0 1,0 101 - 0,0 0 1.019,2
22:37 15,2 8,1 11,5 62,0 1,0 102 - 0,0 0 1.019,2
22:36 15,2 8,1 11,5 62,0 0,9 105 - 0,0 0 1.019,1
22:35 15,2 8,1 11,5 62,0 0,9 108 - 0,0 0 1.019,1
22:34 15,2 8,0 11,5 62,0 0,9 93 - 0,0 0 1.019,2
22:33 15,2 8,0 11,5 62,0 1,0 133 - 0,0 0 1.019,2
22:32 15,2 8,0 11,5 62,0 1,4 101 - 0,0 0 1.019,1
22:31 15,2 8,0 11,5 62,0 1,8 105 - 0,0 0 1.019,1
22:30 15,2 7,8 11,4 61,3 1,8 86 - 0,0 0 1.019,2
22:29 15,2 7,8 11,3 61,0 1,5 98 - 0,0 0 1.019,2
22:28 15,2 7,8 11,4 61,0 1,3 73 - 0,0 0 1.019,1
22:27 15,2 7,8 11,4 61,0 1,3 78 - 0,0 0 1.019,1
22:26 15,2 7,8 11,4 61,0 1,3 87 - 0,0 0 1.019,2
22:25 15,3 7,9 11,4 61,0 1,4 93 - 0,0 0 1.019,2
22:24 15,3 7,9 11,4 61,0 1,3 90 - 0,0 0 1.019,1
22:23 15,3 7,9 11,4 61,0 1,3 87 - 0,0 0 1.019,1
22:22 15,3 7,9 11,5 61,0 1,2 87 - 0,0 0 1.019,1
22:21 15,3 7,8 11,4 60,7 1,1 87 - 0,0 0 1.019,1
22:20 15,4 7,7 11,4 60,0 0,9 87 - 0,0 0 1.019,1
22:19 15,4 7,7 11,4 60,0 0,8 87 - 0,0 0 1.019,1
22:18 15,4 7,7 11,4 60,0 0,7 87 - 0,0 0 1.019,1
22:17 15,4 7,8 11,4 60,0 0,8 87 - 0,0 0 1.019,1
22:16 15,5 7,8 11,5 60,0 0,9 87 - 0,0 0 1.019,1
22:15 15,5 7,8 11,5 60,0 0,9 87 - 0,0 0 1.019,1
22:14 15,6 7,9 11,5 60,0 0,9 88 - 0,0 0 1.019,0
22:13 15,6 7,9 11,5 60,0 0,9 86 - 0,0 0 1.019,0
22:12 15,6 7,9 11,6 60,0 0,9 86 - 0,0 0 1.019,0
22:11 15,6 7,7 11,5 59,1 0,9 82 - 0,0 0 1.019,1
22:10 15,6 7,7 11,5 59,0 1,0 80 - 0,0 0 1.019,0
22:09 15,7 7,7 11,5 59,0 1,1 82 - 0,0 0 1.019,0
22:08 15,7 7,8 11,5 59,0 1,2 82 - 0,0 0 1.019,0
22:07 15,7 7,8 11,6 59,0 1,1 70 - 0,0 0 1.019,0
22:06 15,8 7,9 11,6 59,0 1,1 68 - 0,0 0 1.019,0
22:05 15,8 7,9 11,7 59,0 1,1 68 - 0,0 0 1.019,0
22:04 15,9 7,9 11,7 59,0 1,1 77 - 0,0 0 1.019,0
22:03 15,9 7,9 11,7 59,0 1,2 66 - 0,0 0 1.019,0
22:02 15,9 8,0 11,7 59,0 1,3 66 - 0,0 0 1.019,0
22:01 15,9 8,0 11,8 59,0 1,4 58 - 0,0 0 1.019,0
22:00 16,0 8,0 11,8 59,0 1,5 59 - 0,0 0 1.019,0
 
21:59 16,0 8,1 11,8 59,0 1,5 61 - 0,0 0 1.019,0
21:58 16,0 8,1 11,8 59,0 1,6 57 - 0,0 0 1.019,0
21:57 16,1 8,1 11,9 59,0 1,6 56 - 0,0 0 1.019,0
21:56 16,1 8,0 11,8 58,5 1,6 74 - 0,0 0 1.018,9
21:55 16,1 7,9 11,7 58,0 1,6 55 - 0,0 0 1.018,9
21:54 16,1 7,9 11,8 58,0 1,6 58 - 0,0 0 1.018,9
21:53 16,1 7,7 11,7 57,1 1,6 63 - 0,0 0 1.018,9
21:52 16,2 7,7 11,7 57,0 1,5 48 - 0,0 0 1.019,0
21:51 16,2 7,8 11,7 57,0 1,5 53 - 0,0 0 1.019,0
21:50 16,2 7,8 11,7 57,0 1,4 51 - 0,0 0 1.019,0
21:49 16,3 7,8 11,8 57,0 1,3 67 - 0,0 0 1.018,9
21:48 16,3 7,6 11,7 56,1 1,3 58 - 0,0 0 1.018,9
21:47 16,3 7,6 11,7 56,0 1,4 59 - 0,0 0 1.018,9
21:46 16,4 7,6 11,7 56,0 1,5 56 - 0,0 0 1.018,9
21:45 16,4 7,6 11,7 56,0 1,4 66 - 0,0 0 1.018,9
21:44 16,4 7,7 11,8 56,0 1,3 59 - 0,0 0 1.018,9
21:43 16,5 7,7 11,8 56,0 1,3 51 - 0,0 0 1.018,9
21:42 16,5 7,8 11,8 56,0 1,3 54 - 0,0 0 1.018,9
21:41 16,6 7,8 11,9 56,0 1,3 63 - 0,0 0 1.018,9
21:40 16,6 7,8 11,9 56,0 1,3 53 - 0,0 0 1.018,9
21:39 16,6 7,9 11,9 56,0 1,3 67 - 0,0 0 1.018,9
21:38 16,7 7,9 12,0 56,0 1,3 66 - 0,0 0 1.018,9
21:37 16,7 7,9 12,0 56,0 1,3 66 - 0,0 0 1.018,9
21:36 16,7 7,9 12,0 56,0 1,2 66 - 0,0 0 1.018,9
21:35 16,7 7,7 11,9 55,0 1,0 71 - 0,0 0 1.018,9
21:34 16,8 7,8 12,0 55,4 1,0 66 - 0,0 0 1.018,9
21:33 16,8 8,0 12,1 56,0 1,0 71 - 0,0 0 1.018,9
21:32 16,8 8,0 12,1 56,0 1,0 71 - 0,0 0 1.018,9
21:31 16,8 8,1 12,1 56,0 0,9 66 - 0,0 0 1.018,8
21:30 16,8 8,1 12,1 56,0 0,9 66 - 0,0 0 1.018,8
21:29 16,9 8,1 12,2 56,0 1,1 66 - 0,0 0 1.018,8
21:28 16,9 8,0 12,1 55,6 1,2 70 - 0,0 0 1.018,8
21:27 16,9 7,9 12,1 55,0 1,2 70 - 0,0 0 1.018,8
21:26 17,0 8,1 12,2 55,7 1,1 70 - 0,0 0 1.018,8
21:25 17,0 8,0 12,1 55,1 1,0 66 - 0,0 0 1.018,7
21:24 17,1 8,0 12,2 55,0 1,0 38 - 0,0 0 1.018,7
21:23 17,1 8,0 12,2 55,0 1,2 51 - 0,0 0 1.018,8
21:22 17,1 8,1 12,2 55,0 1,2 68 - 0,0 0 1.018,7
21:21 17,2 8,1 12,3 55,0 1,3 49 - 0,0 0 1.018,7
21:20 17,2 8,1 12,3 55,0 1,3 53 - 0,0 0 1.018,7
21:19 17,2 8,1 12,3 55,0 1,2 46 - 0,0 0 1.018,7
21:18 17,2 7,9 12,2 54,1 1,1 30 - 0,0 0 1.018,7
21:17 17,2 7,8 12,1 53,7 1,1 31 - 0,0 0 1.018,7
21:16 17,2 7,6 12,0 53,0 1,1 66 - 0,0 0 1.018,7
21:15 17,3 7,3 11,9 51,9 1,2 40 - 0,0 0 1.018,7
21:14 17,3 7,1 11,8 51,0 1,2 29 - 0,0 0 1.018,6
21:13 17,3 6,8 11,7 50,2 1,2 63 - 0,0 0 1.018,6
21:12 17,3 6,8 11,7 50,0 1,3 63 - 0,0 0 1.018,6
21:11 17,4 6,9 11,7 50,0 1,4 97 - 0,0 3 1.018,6
21:10 17,4 6,9 11,8 50,0 1,7 94 - 0,0 5 1.018,6
21:09 17,4 6,9 11,8 50,0 2,1 70 - 0,0 5 1.018,5
21:08 17,5 7,0 11,8 50,0 2,0 86 - 0,0 5 1.018,6
21:07 17,5 7,2 11,9 50,9 1,3 93 - 0,0 5 1.018,6
21:06 17,5 7,0 11,8 50,0 1,1 107 - 0,0 6 1.018,6
21:05 17,6 7,0 11,9 50,0 1,2 119 - 0,0 7 1.018,5
21:04 17,6 7,0 11,9 50,0 1,2 104 - 0,0 7 1.018,5
21:03 17,6 7,0 11,9 50,0 0,9 82 - 0,0 9 1.018,5
21:02 17,6 7,1 11,9 50,0 0,8 103 - 0,0 11 1.018,4
21:01 17,6 7,1 11,9 50,0 0,6 111 - 0,0 11 1.018,4
21:00 17,6 7,1 11,9 50,0 0,5 135 - 0,0 12 1.018,4
 
20:59 17,6 7,1 11,9 50,0 0,4 103 - 0,0 12 1.018,4
20:58 17,6 7,1 11,9 50,0 0,4 103 - 0,0 14 1.018,4
20:57 17,7 7,1 11,9 50,0 0,5 103 - 0,0 16 1.018,4
20:56 17,7 7,1 12,0 50,0 0,7 97 - 0,0 17 1.018,3
20:55 17,7 6,9 11,8 49,1 0,8 97 - 0,0 18 1.018,3
20:54 17,7 6,9 11,8 49,0 1,0 128 - 0,0 19 1.018,3
20:53 17,8 6,9 11,9 49,0 1,1 105 - 0,0 19 1.018,3
20:52 17,8 6,9 11,9 49,0 1,0 100 - 0,0 21 1.018,3
20:51 17,8 7,0 11,9 49,0 0,7 147 - 0,0 21 1.018,3
20:50 17,8 7,0 11,9 49,0 0,9 120 - 0,0 22 1.018,3
20:49 17,9 7,0 12,0 49,0 1,5 102 - 0,0 21 1.018,2
20:48 17,9 7,0 12,0 49,0 1,9 99 - 0,0 21 1.018,2
20:47 17,9 7,0 12,0 49,0 1,8 103 - 0,0 23 1.018,2
20:46 17,9 7,1 12,0 49,0 1,4 95 - 0,0 23 1.018,2
20:45 18,0 7,1 12,0 49,0 0,8 103 - 0,0 25 1.018,3
20:44 18,0 6,9 12,0 48,2 0,6 94 - 0,0 28 1.018,3
20:43 18,1 6,9 12,0 48,0 0,6 92 - 0,0 29 1.018,3
20:42 18,1 6,9 12,0 48,0 0,6 103 - 0,0 30 1.018,2
20:41 18,1 6,9 12,0 48,0 0,5 143 - 0,0 32 1.018,2
20:40 18,1 6,9 12,0 48,0 0,5 208 - 0,0 32 1.018,2
20:39 18,1 6,9 12,0 48,0 0,5 126 - 0,0 32 1.018,2
20:38 18,1 6,9 12,0 48,0 0,8 73 - 0,0 34 1.018,2
20:37 18,2 7,0 12,0 48,0 0,8 126 - 0,0 35 1.018,2
20:36 18,2 7,0 12,0 48,0 0,7 126 - 0,0 36 1.018,2
20:35 18,2 7,0 12,1 48,0 0,6 126 - 0,0 39 1.018,2
20:34 18,2 7,0 12,1 48,0 0,6 113 - 0,0 40 1.018,2
20:33 18,2 7,0 12,1 48,0 0,8 101 - 0,0 42 1.018,2
20:32 18,3 7,1 12,1 48,0 0,9 93 - 0,0 43 1.018,2
20:31 18,3 7,1 12,1 48,0 0,8 58 - 0,0 44 1.018,2
20:30 18,3 7,1 12,2 48,0 1,0 149 - 0,0 45 1.018,2
20:29 18,3 7,1 12,2 48,0 1,2 122 - 0,0 46 1.018,2
20:28 18,3 7,1 12,2 48,0 0,9 118 - 0,0 47 1.018,2
20:27 18,3 7,1 12,2 48,0 0,6 84 - 0,0 47 1.018,2
20:26 18,3 7,1 12,2 48,0 0,6 101 - 0,0 48 1.018,2
20:25 18,3 7,1 12,2 48,0 0,5 88 - 0,0 50 1.018,2
20:24 18,3 7,1 12,2 48,0 0,2 76 - 0,0 51 1.018,2
20:23 18,3 7,0 12,1 47,6 0,1 241 - 0,0 53 1.018,2
20:22 18,3 6,8 12,0 47,0 0,4 66 - 0,0 54 1.018,2
20:21 18,4 6,8 12,0 47,0 1,0 101 - 0,0 55 1.018,1
20:20 18,4 6,6 11,9 46,2 1,1 112 - 0,0 56 1.018,1
20:19 18,4 6,8 12,1 47,0 1,1 95 - 0,0 57 1.018,1
20:18 18,4 7,0 12,1 47,4 0,9 94 - 0,0 58 1.018,1
20:17 18,4 7,2 12,2 48,0 0,6 86 - 0,0 61 1.018,1
20:16 18,4 7,2 12,2 48,0 0,5 87 - 0,0 63 1.018,1
20:15 18,4 7,1 12,2 48,0 0,5 86 - 0,0 72 1.018,1
20:14 18,4 7,1 12,2 48,0 0,4 87 - 0,0 86 1.018,1
20:13 18,3 6,8 12,0 46,8 0,2 87 - 0,0 97 1.018,1
20:12 18,3 6,5 11,9 46,0 0,4 87 - 0,0 100 1.018,1
20:11 18,4 6,5 11,9 46,0 0,7 87 - 0,0 92 1.018,1
20:10 18,3 6,7 12,0 46,7 0,9 88 - 0,0 84 1.018,0
20:09 18,3 6,8 12,0 47,0 0,9 64 - 0,0 111 1.018,0
20:08 18,3 7,1 12,2 47,9 0,8 47 - 0,0 111 1.018,0
20:07 18,3 6,8 12,0 47,0 0,4 75 - 0,0 111 1.018,0
20:06 18,3 6,8 12,0 47,0 0,2 82 - 0,0 111 1.018,1
20:05 18,3 6,8 12,0 47,0 0,2 82 - 0,0 87 1.018,1
20:04 18,3 6,6 11,9 46,3 0,2 82 - 0,0 84 1.018,1
20:03 18,3 6,5 11,9 46,2 0,2 89 - 0,0 109 1.018,1
20:02 18,3 6,8 12,0 47,0 0,3 89 - 0,0 125 1.018,1
20:01 18,3 6,8 12,0 47,0 0,4 89 - 0,0 126 1.018,0
20:00 18,3 6,8 12,0 47,0 0,3 89 - 0,0 127 1.018,0
 
19:59 18,3 6,6 11,9 46,5 0,3 89 - 0,0 122 1.018,0
19:58 18,3 6,4 11,8 45,9 0,6 99 - 0,0 132 1.018,0
19:57 18,2 6,1 11,7 45,1 0,9 99 - 0,0 138 1.018,0
19:56 18,2 6,1 11,7 45,0 1,0 104 - 0,0 139 1.018,0
19:55 18,2 6,1 11,6 45,0 1,0 76 - 0,0 139 1.017,9
19:54 18,3 6,2 11,7 45,5 1,0 76 - 0,0 139 1.017,9
19:53 18,3 6,4 11,8 46,1 0,8 72 - 0,0 142 1.018,0
19:52 18,2 6,6 11,9 46,7 0,8 83 - 0,0 147 1.018,0
19:50 18,3 6,6 11,9 46,7 0,8 80 - 0,0 145 1.017,9
19:49 18,2 6,5 11,9 46,5 0,8 80 - 0,0 154 1.017,9
19:48 18,2 6,5 11,9 46,5 0,7 80 - 0,0 158 1.017,9
19:47 18,2 6,9 12,0 47,6 0,8 80 - 0,0 162 1.017,9
19:46 18,2 7,0 12,1 48,0 0,7 80 - 0,0 163 1.017,9
19:45 18,2 7,0 12,1 48,0 0,4 80 - 0,0 167 1.018,0
19:44 18,2 7,0 12,1 48,0 0,1 80 - 0,0 169 1.017,9
19:43 18,2 7,0 12,1 48,0 0,1 80 - 0,0 163 1.017,9
19:42 18,2 7,0 12,1 48,0 0,3 80 - 0,0 121 1.017,9
19:41 18,2 7,0 12,1 48,0 0,3 80 - 0,0 96 1.017,9
19:40 18,2 7,0 12,1 48,0 0,4 80 - 0,0 96 1.017,9
19:39 18,2 7,1 12,1 48,2 0,5 82 - 0,0 96 1.017,9
19:38 18,2 7,2 12,2 48,7 0,5 82 - 0,0 95 1.017,9
19:37 18,2 7,0 12,1 48,0 0,3 82 - 0,0 95 1.017,9
19:36 18,2 7,0 12,1 48,0 0,2 82 - 0,0 105 1.017,9
19:35 18,2 7,0 12,1 48,0 0,4 82 - 0,0 131 1.017,9
19:34 18,2 6,9 12,0 47,8 0,5 82 - 0,0 100 1.017,9
19:33 18,2 6,7 11,9 47,0 0,5 82 - 0,0 121 1.017,9
19:32 18,2 6,7 11,9 47,0 0,4 82 - 0,0 142 1.017,9
19:31 18,2 6,7 11,9 47,0 0,2 82 - 0,0 125 1.017,9
19:30 18,2 6,7 11,9 47,0 0,1 82 - 0,0 102 1.017,9
19:29 18,2 6,7 11,9 47,0 0,0 82 - 0,0 97 1.017,9
19:28 18,2 6,7 11,9 47,0 0,1 82 - 0,0 96 1.017,9
19:27 18,2 6,6 11,9 46,8 0,2 82 - 0,0 95 1.017,9
19:26 18,2 6,4 11,8 46,0 0,4 82 - 0,0 103 1.017,9
19:25 18,2 6,5 11,8 46,5 0,5 82 - 0,0 127 1.017,9
19:24 18,2 6,7 11,9 47,0 0,5 80 - 0,0 172 1.017,9
19:23 18,2 6,9 12,0 47,7 0,5 74 - 0,0 179 1.017,9
19:22 18,2 6,8 12,0 47,3 0,3 68 - 0,0 179 1.017,9
19:21 18,2 7,0 12,1 48,0 0,2 63 - 0,0 148 1.017,9
19:20 18,2 7,0 12,1 48,0 0,1 64 - 0,0 106 1.017,8
19:19 18,2 7,0 12,1 48,0 0,1 64 - 0,0 99 1.017,8
19:18 18,2 6,8 12,0 47,4 0,2 64 - 0,0 110 1.017,8
19:17 18,2 6,9 12,0 47,7 0,3 64 - 0,0 105 1.017,8
19:16 18,2 6,8 12,0 47,3 0,2 47 - 0,0 102 1.017,8
19:15 18,2 7,0 12,1 48,0 0,1 128 - 0,0 96 1.017,8
19:14 18,2 6,9 12,0 47,6 0,2 129 - 0,0 94 1.017,8
19:13 18,2 6,9 12,0 47,5 0,1 129 - 0,0 96 1.017,9
19:12 18,2 6,8 12,0 47,3 0,1 128 - 0,0 96 1.017,9
19:11 18,2 6,7 11,9 47,0 0,2 128 - 0,0 100 1.017,9
19:10 18,2 6,7 11,9 47,0 0,3 129 - 0,0 99 1.017,8
19:09 18,2 6,8 12,0 47,4 0,4 129 - 0,0 91 1.017,8
19:08 18,2 6,9 12,0 47,6 0,4 129 - 0,0 89 1.017,8
19:07 18,2 6,9 12,0 47,5 0,3 129 - 0,0 86 1.017,8
19:06 18,2 7,0 12,1 48,0 0,3 140 - 0,0 86 1.017,8
19:05 18,2 7,0 12,1 48,0 0,2 147 - 0,0 88 1.017,8
19:04 18,2 7,0 12,1 48,0 0,1 147 - 0,0 97 1.017,8
19:03 18,2 7,0 12,1 48,0 0,2 147 - 0,0 104 1.017,8
19:02 18,2 7,2 12,2 48,5 0,3 147 - 0,0 104 1.017,7
19:01 18,2 7,3 12,2 49,0 0,2 129 - 0,0 111 1.017,7
19:00 18,2 7,3 12,2 49,0 0,1 86 - 0,0 151 1.017,7
 
18:59 18,2 7,1 12,1 48,3 0,2 84 - 0,0 150 1.017,7
18:58 18,2 7,0 12,1 48,0 0,2 84 - 0,0 116 1.017,7
18:57 18,2 7,0 12,1 47,8 0,2 82 - 0,0 133 1.017,7
18:56 18,2 6,8 12,0 47,4 0,4 82 - 0,0 141 1.017,7
18:55 18,2 7,0 12,1 48,0 0,7 73 - 0,0 133 1.017,8
18:54 18,2 7,0 12,1 48,0 0,8 105 - 0,0 134 1.017,8
18:53 18,2 7,0 12,1 48,0 0,7 107 - 0,0 138 1.017,8
18:52 18,2 6,7 12,0 47,1 0,8 110 - 0,0 141 1.017,8
18:51 18,2 6,7 11,9 47,0 1,2 88 - 0,0 142 1.017,8
18:50 18,2 6,7 11,9 47,0 1,7 89 - 0,0 142 1.017,8
18:49 18,2 6,9 12,0 47,7 1,6 88 - 0,0 144 1.017,7
18:48 18,2 6,8 12,0 47,4 1,1 107 - 0,0 146 1.017,7
18:47 18,2 7,0 12,1 47,8 1,2 94 - 0,0 149 1.017,7
18:46 18,2 7,0 12,1 48,0 1,4 105 - 0,0 152 1.017,7
18:45 18,2 7,0 12,1 48,0 1,2 88 - 0,0 154 1.017,7
18:44 18,2 6,9 12,0 47,7 0,9 106 - 0,0 156 1.017,7
18:43 18,2 6,7 11,9 47,0 0,6 115 - 0,0 156 1.017,7
18:42 18,2 6,7 11,9 47,0 0,4 116 - 0,0 155 1.017,7
18:41 18,2 6,7 11,9 47,0 0,3 116 - 0,0 153 1.017,7
18:40 18,2 6,4 11,8 46,2 0,3 121 - 0,0 153 1.017,7
18:39 18,2 6,7 11,9 47,0 0,1 91 - 0,0 154 1.017,6
18:38 18,2 6,7 11,9 47,0 0,2 330 - 0,0 156 1.017,7
18:37 18,2 6,7 11,9 47,0 0,3 330 - 0,0 160 1.017,7
18:36 18,2 6,7 11,9 47,0 0,1 307 - 0,0 164 1.017,6
18:35 18,3 6,5 11,8 46,2 0,3 118 - 0,0 167 1.017,7
18:34 18,2 6,4 11,8 46,1 0,6 89 - 0,0 175 1.017,6
18:33 18,2 6,7 12,0 47,0 0,2 95 - 0,0 167 1.017,6
18:32 18,2 6,7 11,9 47,0 0,1 283 - 0,0 159 1.017,6
18:31 18,2 6,7 12,0 47,0 0,3 84 - 0,0 159 1.017,6
18:30 18,2 6,7 12,0 47,0 0,9 90 - 0,0 136 1.017,6
18:29 18,2 6,4 11,8 46,2 0,9 88 - 0,0 129 1.017,6
18:28 18,2 6,4 11,8 46,0 0,7 119 - 0,0 126 1.017,6
18:27 18,3 6,4 11,8 46,0 0,5 69 - 0,0 122 1.017,6
18:26 18,2 6,4 11,8 46,0 0,2 91 - 0,0 119 1.017,6
18:25 18,3 6,4 11,8 46,0 0,3 227 - 0,0 114 1.017,6
18:24 18,3 6,4 11,8 46,0 0,3 251 - 0,0 111 1.017,6
18:23 18,3 6,4 11,8 46,0 0,5 104 - 0,0 111 1.017,5
18:22 18,3 6,5 11,9 46,2 0,8 87 - 0,0 112 1.017,6
18:21 18,3 6,7 11,9 46,7 0,4 109 - 0,0 114 1.017,6
18:20 18,3 6,4 11,8 46,0 0,1 14 - 0,0 116 1.017,6
18:19 18,3 6,5 11,9 46,0 0,6 263 - 0,0 118 1.017,6
18:18 18,3 6,5 11,9 46,0 1,1 213 - 0,0 120 1.017,6
18:17 18,3 6,5 11,9 46,0 1,8 162 - 0,0 120 1.017,6
18:16 18,3 6,5 11,9 46,0 2,2 99 - 0,0 122 1.017,6
18:15 18,4 6,5 11,9 46,0 1,8 113 - 0,0 123 1.017,5
18:14 18,4 6,5 11,9 46,0 1,1 124 - 0,0 127 1.017,5
18:13 18,4 6,5 11,9 46,0 1,1 117 - 0,0 129 1.017,6
18:12 18,4 6,5 11,9 46,0 0,8 109 - 0,0 137 1.017,6
18:11 18,4 6,6 12,0 46,0 0,8 36 - 0,0 139 1.017,6
18:10 18,4 6,6 12,0 46,0 0,8 45 - 0,0 144 1.017,6
18:09 18,4 6,7 12,0 46,4 0,5 76 - 0,0 150 1.017,6
18:08 18,4 6,9 12,1 47,0 0,4 280 - 0,0 154 1.017,6
18:07 18,5 6,9 12,1 47,0 0,5 253 - 0,0 156 1.017,6
18:06 18,5 6,9 12,1 47,0 0,5 107 - 0,0 159 1.017,6
18:05 18,5 6,9 12,1 47,0 1,0 92 - 0,0 161 1.017,6
18:04 18,5 6,9 12,2 47,0 1,0 34 - 0,0 162 1.017,6
18:03 18,5 6,9 12,1 47,0 0,8 76 - 0,0 162 1.017,6
18:02 18,5 6,9 12,1 47,0 0,2 189 - 0,0 163 1.017,6
18:01 18,5 7,0 12,2 47,0 0,5 264 - 0,0 163 1.017,6
18:00 18,5 6,7 12,0 46,2 0,4 100 - 0,0 166 1.017,7
 
17:59 18,5 6,6 12,0 46,0 0,9 168 - 0,0 170 1.017,7
17:58 18,5 6,7 12,0 46,0 0,6 176 - 0,0 172 1.017,7
17:57 18,5 6,7 12,0 46,0 0,3 311 - 0,0 172 1.017,7
17:56 18,6 6,7 12,1 46,0 0,5 47 - 0,0 172 1.017,6
17:55 18,6 6,5 11,9 45,3 0,3 246 - 0,0 174 1.017,6
17:54 18,6 6,4 11,9 45,0 0,6 153 - 0,0 174 1.017,6
17:53 18,6 6,4 11,9 45,0 0,5 231 - 0,0 176 1.017,7
17:52 18,6 6,4 11,9 45,0 0,9 93 - 0,0 182 1.017,7
17:51 18,6 6,4 11,9 45,0 1,9 92 - 0,0 186 1.017,7
17:50 18,6 6,6 12,0 45,6 1,9 90 - 0,0 190 1.017,7
17:49 18,6 6,8 12,1 46,0 0,9 155 - 0,0 192 1.017,7
17:48 18,7 6,5 12,0 45,2 1,0 253 - 0,0 193 1.017,7
17:47 18,7 6,8 12,1 46,0 0,5 254 - 0,0 193 1.017,7
17:46 18,7 6,8 12,1 46,0 0,1 93 - 0,0 192 1.017,7
17:45 18,7 6,8 12,1 46,0 0,3 300 - 0,0 192 1.017,7
17:44 18,7 6,8 12,1 46,0 0,5 95 - 0,0 193 1.017,6
17:43 18,7 6,8 12,1 46,0 1,4 118 - 0,0 196 1.017,7
17:42 18,7 6,5 12,0 45,2 1,4 107 - 0,0 199 1.017,7
17:41 18,7 6,8 12,1 46,0 1,4 90 - 0,0 202 1.017,7
17:40 18,7 6,8 12,1 46,0 1,6 89 - 0,0 206 1.017,8
17:39 18,7 6,8 12,1 46,0 1,6 91 - 0,0 207 1.017,8
17:38 18,7 6,8 12,1 46,0 1,0 120 - 0,0 209 1.017,8
17:37 18,7 6,8 12,1 46,0 0,3 193 - 0,0 205 1.017,7
17:36 18,7 6,8 12,2 46,0 0,3 299 - 0,0 201 1.017,7
17:35 18,7 6,8 12,2 46,0 0,2 123 - 0,0 197 1.017,7
17:34 18,7 6,8 12,1 46,0 0,4 335 - 0,0 194 1.017,7
17:33 18,7 6,8 12,1 46,0 0,5 78 - 0,0 199 1.017,8
17:32 18,7 6,8 12,1 46,0 0,3 26 - 0,0 228 1.017,8
17:31 18,7 6,8 12,1 46,0 0,1 107 - 0,0 211 1.017,8
17:30 18,7 6,8 12,1 46,1 0,2 157 - 0,0 226 1.017,8
17:29 18,7 7,1 12,3 47,0 0,2 157 - 0,0 221 1.017,8
17:28 18,7 7,1 12,3 47,0 0,3 157 - 0,0 194 1.017,8
17:27 18,7 7,1 12,3 47,0 0,4 180 - 0,0 189 1.017,8
17:26 18,7 6,9 12,2 46,4 0,9 104 - 0,0 234 1.017,8
17:25 18,7 6,8 12,1 46,0 1,8 47 - 0,0 279 1.017,8
17:24 18,7 6,8 12,1 46,0 2,1 89 - 0,0 222 1.017,8
17:23 18,7 6,8 12,2 46,0 1,9 101 - 0,0 180 1.017,8
17:22 18,7 6,8 12,2 46,0 1,0 79 - 0,0 179 1.017,8
17:21 18,7 7,0 12,3 46,6 0,8 191 - 0,0 176 1.017,8
17:20 18,8 7,0 12,3 46,3 0,6 91 - 0,0 178 1.017,8
17:19 18,8 6,9 12,2 46,0 0,1 222 - 0,0 175 1.017,8
17:18 18,8 6,8 12,2 45,9 0,1 84 - 0,0 173 1.017,8
17:17 18,8 6,6 12,1 45,0 0,4 84 - 0,0 172 1.017,8
17:16 18,8 6,8 12,2 45,8 0,5 82 - 0,0 175 1.017,9
17:15 18,8 7,0 12,3 46,5 0,2 91 - 0,0 176 1.017,8
17:14 18,8 6,9 12,2 46,0 0,1 285 - 0,0 179 1.017,8
17:13 18,8 6,9 12,2 46,0 0,4 110 - 0,0 181 1.017,8
17:12 18,8 6,9 12,2 46,0 0,7 67 - 0,0 183 1.017,8
17:11 18,8 6,9 12,2 46,0 0,6 119 - 0,0 187 1.017,9
17:10 18,8 6,8 12,2 45,6 0,5 109 - 0,0 190 1.017,9
17:09 18,8 6,6 12,1 45,0 0,4 111 - 0,0 192 1.017,9
17:08 18,8 6,8 12,2 45,7 0,4 195 - 0,0 193 1.017,9
17:07 18,8 6,7 12,1 45,2 0,6 96 - 0,0 194 1.017,9
17:06 18,8 6,9 12,3 46,0 1,4 45 - 0,0 195 1.017,9
17:05 18,8 6,9 12,3 46,0 1,6 59 - 0,0 194 1.017,9
17:04 18,8 7,0 12,3 46,0 1,4 61 - 0,0 195 1.017,9
17:03 18,9 7,0 12,3 46,0 1,4 24 - 0,0 196 1.017,9
17:02 18,9 7,0 12,3 46,0 1,2 57 - 0,0 201 1.017,9
17:01 18,9 7,0 12,3 46,0 0,9 99 - 0,0 203 1.017,9
17:00 18,9 7,0 12,3 46,0 1,1 57 - 0,0 203 1.017,9
 
16:59 18,9 7,0 12,3 46,0 1,9 80 - 0,0 195 1.017,9
16:58 18,9 7,0 12,4 46,0 1,6 96 - 0,0 191 1.017,9
16:57 18,9 7,0 12,4 46,0 1,1 222 - 0,0 185 1.017,9
16:56 19,0 7,1 12,4 46,0 0,9 109 - 0,0 184 1.017,9
16:55 19,0 7,1 12,4 46,0 0,8 97 - 0,0 179 1.017,9
16:54 19,0 6,8 12,2 45,0 0,6 335 - 0,0 175 1.017,9
16:53 19,0 6,8 12,3 45,0 0,5 91 - 0,0 174 1.017,9
16:52 19,1 6,8 12,3 45,0 1,0 113 - 0,0 176 1.017,9
16:51 19,1 7,1 12,4 45,7 1,3 57 - 0,0 172 1.017,9
16:50 19,1 7,0 12,4 45,3 1,6 61 - 0,0 171 1.017,9
16:49 19,2 6,9 12,4 45,0 2,0 88 - 0,0 170 1.017,9
16:48 19,2 6,9 12,4 45,0 2,3 101 - 0,0 168 1.017,9
16:47 19,2 7,0 12,4 45,0 1,8 65 - 0,0 164 1.017,9
16:46 19,3 7,0 12,5 45,0 0,6 59 - 0,0 162 1.017,9
16:45 19,4 7,1 12,5 45,0 0,1 265 - 0,0 160 1.017,9
16:44 19,4 6,9 12,4 44,2 0,7 110 - 0,0 162 1.017,9
16:43 19,4 6,8 12,4 44,0 2,2 59 - 0,0 161 1.017,9
16:42 19,5 6,9 12,5 44,0 2,6 76 - 0,0 159 1.018,0
16:41 19,5 6,9 12,5 44,0 2,1 83 - 0,0 157 1.017,9
16:40 19,6 6,8 12,5 43,5 1,4 107 - 0,0 156 1.017,9
16:39 19,7 6,9 12,5 43,7 1,4 26 - 0,0 162 1.017,9
16:38 19,7 7,1 12,7 44,0 1,6 49 - 0,0 167 1.017,8
16:37 19,8 7,1 12,7 44,0 1,4 49 - 0,0 165 1.017,9
16:36 19,8 7,2 12,7 44,0 1,2 34 - 0,0 164 1.017,9
16:35 19,9 7,3 12,8 44,0 1,2 97 - 0,0 167 1.017,9
16:34 20,0 7,3 12,8 44,0 1,1 29 - 0,0 169 1.017,9
16:33 20,0 7,3 12,8 44,0 0,7 93 - 0,0 163 1.017,9
16:32 20,0 7,4 12,9 44,0 0,5 59 - 0,0 170 1.017,9
16:31 20,1 7,1 12,8 43,1 0,4 76 - 0,0 172 1.018,0
16:30 20,1 7,0 12,7 42,8 0,6 163 - 0,0 153 1.018,0
16:29 20,2 6,8 12,6 42,0 0,4 105 - 0,0 152 1.018,0
16:28 20,2 7,2 12,9 43,1 0,3 278 - 0,0 142 1.018,0
16:27 20,2 7,6 13,0 44,1 1,1 62 - 0,0 138 1.018,0
16:26 20,2 7,9 13,2 45,2 1,8 113 - 0,0 313 1.017,9
16:25 20,2 8,1 13,2 45,7 1,7 146 - 0,0 631 1.017,9
16:24 20,1 7,4 12,9 44,0 1,7 106 - 0,0 631 1.017,9
16:23 20,0 7,4 12,9 44,0 1,9 68 - 0,0 641 1.017,9
16:22 20,0 7,3 12,8 44,0 1,7 172 - 0,0 633 1.017,9
16:21 19,9 7,3 12,8 44,0 1,6 108 - 0,0 627 1.017,9
16:20 19,8 7,2 12,7 44,1 0,9 86 - 0,0 625 1.018,0
16:19 19,7 7,4 12,8 44,8 0,3 280 - 0,0 619 1.018,0
16:18 19,7 7,1 12,6 44,0 0,3 76 - 0,0 579 1.018,0
16:17 19,7 7,0 12,6 44,0 0,8 47 - 0,0 611 1.018,0
16:16 19,6 7,0 12,6 44,0 1,0 39 - 0,0 614 1.018,0
16:15 19,6 7,0 12,6 44,0 1,2 63 - 0,0 621 1.018,0
16:14 19,6 6,9 12,5 44,0 1,3 21 - 0,0 628 1.018,0
16:13 19,6 6,9 12,5 44,0 1,3 60 - 0,0 645 1.018,1
16:12 19,5 6,8 12,4 43,7 1,5 64 - 0,0 656 1.018,0
16:11 19,5 6,7 12,4 43,5 2,4 71 - 0,0 668 1.018,1
16:10 19,5 7,3 12,7 45,3 3,1 84 - 0,0 692 1.018,1
16:09 19,4 7,4 12,7 45,9 2,6 70 - 0,0 722 1.018,1
16:08 19,3 7,0 12,5 45,0 2,1 111 - 0,0 748 1.018,1
16:07 19,3 7,0 12,5 45,0 1,9 72 - 0,0 754 1.018,1
16:06 19,3 7,0 12,5 45,0 2,2 105 - 0,0 757 1.018,1
16:05 19,2 7,2 12,5 45,5 2,8 101 - 0,0 764 1.018,0
16:04 19,2 7,1 12,5 45,4 3,0 97 - 0,0 759 1.018,0
16:03 19,2 6,9 12,4 44,9 2,4 91 - 0,0 669 1.018,0
16:02 19,2 6,7 12,3 44,1 1,8 74 - 0,0 455 1.018,1
16:01 19,2 7,0 12,4 45,0 1,1 54 - 0,0 352 1.018,0
16:00 19,2 7,0 12,4 45,0 0,9 178 - 0,0 267 1.018,0
 
15:59 19,2 7,0 12,4 45,0 1,2 106 - 0,0 206 1.018,0
15:58 19,2 7,0 12,4 45,0 2,1 93 - 0,0 195 1.018,1
15:57 19,2 7,0 12,4 45,0 2,6 91 - 0,0 191 1.018,1
15:56 19,2 6,7 12,3 44,2 2,4 82 - 0,0 415 1.018,0
15:55 19,2 7,0 12,4 45,0 1,7 128 - 0,0 694 1.018,1
15:54 19,2 6,8 12,3 44,6 1,0 100 - 0,0 694 1.018,1
15:53 19,2 6,6 12,2 44,0 1,2 19 - 0,0 696 1.018,1
15:52 19,2 6,8 12,3 44,7 1,8 68 - 0,0 696 1.018,1
15:51 19,2 6,6 12,2 44,2 2,6 86 - 0,0 697 1.018,0
15:50 19,2 6,8 12,3 44,8 3,0 73 - 0,0 700 1.018,1
15:49 19,2 6,6 12,2 44,0 3,2 118 - 0,0 710 1.018,1
15:48 19,2 6,8 12,3 44,4 3,0 70 - 0,0 403 1.018,1
15:47 19,3 7,0 12,5 45,0 2,6 86 - 0,0 296 1.018,1
15:46 19,3 6,8 12,4 44,4 1,9 72 - 0,0 225 1.018,1
15:45 19,3 7,0 12,5 45,0 1,3 82 - 0,0 209 1.018,1
15:44 19,3 6,7 12,3 44,1 0,9 45 - 0,0 367 1.018,1
15:43 19,3 6,8 12,3 44,3 0,9 27 - 0,0 510 1.018,1
15:42 19,3 7,2 12,5 45,5 0,5 86 - 0,0 510 1.018,1
15:41 19,3 7,3 12,6 46,0 0,6 242 - 0,0 510 1.018,1
15:40 19,2 7,3 12,6 46,0 1,0 99 - 0,0 510 1.018,1
15:39 19,2 7,3 12,5 46,0 2,1 105 - 0,0 592 1.018,1
15:38 19,2 7,2 12,5 46,0 2,5 107 - 0,0 744 1.018,1
15:37 19,2 7,3 12,5 46,0 2,6 92 - 0,0 377 1.018,1
15:36 19,2 7,1 12,5 45,4 2,2 116 - 0,0 179 1.018,1
15:35 19,3 7,0 12,5 45,0 1,6 84 - 0,0 188 1.018,1
15:34 19,3 7,0 12,5 45,0 1,2 189 - 0,0 377 1.018,1
15:33 19,3 7,0 12,5 45,0 1,2 82 - 0,0 717 1.018,1
15:32 19,3 7,1 12,5 45,2 1,7 68 - 0,0 717 1.018,1
15:31 19,3 7,2 12,6 45,7 0,6 98 - 0,0 707 1.018,2
15:30 19,3 7,2 12,5 45,5 0,4 263 - 0,0 703 1.018,1
15:29 19,3 7,6 12,7 46,7 0,4 116 - 0,0 703 1.018,1
15:28 19,2 7,3 12,6 46,2 0,2 295 - 0,0 700 1.018,2
15:27 19,1 7,2 12,5 46,0 0,2 93 - 0,0 698 1.018,2
15:26 19,1 7,2 12,5 46,0 0,5 165 - 0,0 701 1.018,2
15:25 19,1 7,0 12,4 45,7 0,4 74 - 0,0 699 1.018,2
15:24 19,1 7,2 12,5 46,0 0,6 120 - 0,0 689 1.018,2
15:23 19,0 7,3 12,5 46,4 0,4 87 - 0,0 686 1.018,2
15:22 19,0 7,1 12,4 46,0 1,1 241 - 0,0 680 1.018,1
15:21 19,0 7,2 12,5 46,1 1,9 117 - 0,0 684 1.018,2
15:20 19,0 7,5 12,6 47,0 2,5 88 - 0,0 687 1.018,2
15:19 19,0 7,4 12,5 47,0 1,5 97 - 0,0 691 1.018,2
15:18 18,9 7,4 12,5 47,0 1,7 185 - 0,0 700 1.018,2
15:17 18,9 7,1 12,4 46,4 2,5 113 - 0,0 694 1.018,2
15:16 18,9 7,5 12,6 47,6 2,3 125 - 0,0 694 1.018,1
15:15 18,8 7,6 12,6 48,0 0,8 47 - 0,0 698 1.018,1
15:14 18,8 7,6 12,6 48,0 0,7 281 - 0,0 706 1.018,1
15:13 18,8 7,4 12,5 47,6 1,3 321 - 0,0 724 1.018,1
15:12 18,8 7,4 12,5 47,6 1,2 214 - 0,0 683 1.018,2
15:11 18,7 7,5 12,5 48,0 1,0 84 - 0,0 724 1.018,2
15:10 18,7 7,7 12,6 48,9 0,8 261 - 0,0 709 1.018,2
15:09 18,6 7,7 12,6 49,0 1,3 99 - 0,0 713 1.018,3
15:08 18,5 7,6 12,5 49,0 2,6 209 - 0,0 720 1.018,2
15:07 18,5 7,6 12,5 49,0 3,2 148 - 0,0 727 1.018,1
15:06 18,5 7,6 12,4 49,0 2,8 93 - 0,0 727 1.018,1
15:05 18,4 7,5 12,4 49,0 2,6 350 - 0,0 698 1.018,2
15:04 18,4 7,2 12,2 48,2 1,3 92 - 0,0 743 1.018,2
15:03 18,4 7,2 12,2 48,2 2,9 156 - 0,0 747 1.018,2
15:02 18,4 7,5 12,3 49,0 3,0 72 - 0,0 749 1.018,2
15:01 18,3 7,4 12,3 49,0 2,2 101 - 0,0 755 1.018,3
15:00 18,2 7,5 12,3 49,6 1,0 130 - 0,0 760 1.018,3
 
14:59 18,2 7,8 12,5 50,7 1,1 84 - 0,0 755 1.018,3
14:58 18,1 7,6 12,3 50,0 1,0 85 - 0,0 749 1.018,3
14:57 18,1 7,5 12,3 50,0 0,3 314 - 0,0 747 1.018,3
14:56 18,0 7,5 12,2 50,0 0,5 274 - 0,0 758 1.018,3
14:55 18,0 7,4 12,2 50,0 1,0 51 - 0,0 759 1.018,4
14:54 18,0 7,6 12,3 50,6 1,7 51 - 0,0 754 1.018,4
14:53 17,9 7,9 12,4 51,8 1,4 30 - 0,0 751 1.018,3
14:52 17,8 7,8 12,3 52,0 1,0 124 - 0,0 751 1.018,3
14:51 17,7 7,8 12,3 52,0 0,6 62 - 0,0 754 1.018,4
14:50 17,6 7,7 12,2 52,0 0,6 168 - 0,0 757 1.018,3
14:49 17,5 7,7 12,2 52,5 0,2 83 - 0,0 762 1.018,3
14:48 17,4 7,6 12,1 52,4 0,4 259 - 0,0 768 1.018,3
14:47 17,3 7,6 12,1 52,8 0,6 140 - 0,0 767 1.018,3
14:46 17,2 7,6 12,0 53,0 1,0 104 - 0,0 722 1.018,4
14:45 17,1 7,5 11,9 53,0 1,2 95 - 0,0 719 1.018,3
14:44 17,0 7,5 11,9 53,4 0,8 102 - 0,0 769 1.018,3
14:43 16,9 7,6 11,9 54,0 0,2 270 - 0,0 775 1.018,3
14:42 16,8 7,3 11,7 53,4 1,1 2 - 0,0 422 1.018,4
14:41 16,7 7,1 11,6 53,0 0,8 307 - 0,0 403 1.018,4
14:40 16,6 7,0 11,5 53,0 0,4 103 - 0,0 403 1.018,3
14:39 16,6 7,0 11,5 53,0 0,8 80 - 0,0 368 1.018,3
14:38 16,5 7,0 11,4 53,0 0,7 188 - 0,0 675 1.018,3
14:37 16,5 7,0 11,5 53,6 0,8 80 - 0,0 819 1.018,3
14:36 16,4 7,1 11,5 54,0 0,9 69 - 0,0 820 1.018,4
14:35 16,3 6,8 11,3 53,2 0,8 147 - 0,0 830 1.018,4
14:34 16,3 7,0 11,4 53,9 1,2 140 - 0,0 833 1.018,3
14:33 16,2 6,6 11,2 52,8 1,0 83 - 0,0 435 1.018,4
14:32 16,2 6,4 11,0 52,0 0,7 218 - 0,0 169 1.018,4
14:31 16,2 6,4 11,1 52,0 0,9 209 - 0,0 169 1.018,4
14:30 16,3 6,4 11,1 52,0 1,3 94 - 0,0 166 1.018,4
14:29 16,3 6,5 11,1 52,0 2,3 64 - 0,0 157 1.018,3
14:28 16,4 6,8 11,3 52,8 2,4 57 - 0,0 153 1.018,4
14:27 16,4 6,6 11,2 52,0 2,0 56 - 0,0 138 1.018,4
14:26 16,5 6,5 11,2 51,6 1,9 99 - 0,0 123 1.018,4
14:25 16,5 6,5 11,2 51,6 2,5 95 - 0,0 110 1.018,3
14:24 16,6 6,7 11,3 52,0 3,1 87 - 0,0 99 1.018,3
14:23 16,6 7,0 11,5 52,9 3,5 66 - 0,0 97 1.018,3
14:22 16,7 7,1 11,6 53,0 4,0 89 - 0,0 98 1.018,4
14:21 16,7 7,1 11,6 53,0 4,0 107 - 0,0 101 1.018,3
14:20 16,7 7,1 11,6 53,0 3,2 73 - 0,0 109 1.018,3
14:19 16,7 7,1 11,6 53,0 1,7 97 - 0,0 124 1.018,4
14:18 16,7 7,1 11,6 53,0 0,5 211 - 0,0 134 1.018,4
14:17 16,7 7,1 11,6 53,0 0,3 253 - 0,0 134 1.018,4
14:16 16,7 7,2 11,6 53,2 1,0 96 - 0,0 137 1.018,4
14:15 16,7 7,4 11,8 54,0 1,6 94 - 0,0 137 1.018,4
14:14 16,7 7,4 11,8 54,0 2,0 97 - 0,0 135 1.018,3
14:13 16,7 7,4 11,8 54,0 2,1 109 - 0,0 123 1.018,4
14:12 16,7 7,4 11,7 54,0 1,8 141 - 0,0 119 1.018,4
14:11 16,7 7,4 11,7 54,0 1,7 80 - 0,0 125 1.018,4
14:10 16,7 7,4 11,7 54,0 1,8 127 - 0,0 131 1.018,4
14:09 16,7 7,3 11,6 53,7 1,8 94 - 0,0 138 1.018,4
14:08 16,6 7,0 11,5 53,0 1,9 168 - 0,0 153 1.018,4
14:07 16,6 7,0 11,5 53,0 3,1 95 - 0,0 753 1.018,3
14:06 16,6 7,0 11,5 53,0 4,2 87 - 0,0 793 1.018,4
14:05 16,6 7,0 11,5 53,1 4,0 87 - 0,0 826 1.018,4
14:04 16,6 7,3 11,6 54,0 3,3 67 - 0,0 838 1.018,4
14:03 16,6 7,2 11,6 53,7 2,8 58 - 0,0 841 1.018,4
14:02 16,6 7,0 11,5 53,0 3,1 95 - 0,0 838 1.018,4
14:01 16,6 7,2 11,6 53,7 3,6 93 - 0,0 765 1.018,4
14:00 16,6 7,1 11,5 53,2 3,5 99 - 0,0 306 1.018,4
 
13:59 16,6 7,0 11,5 53,1 2,7 102 - 0,0 306 1.018,4
13:58 16,7 7,3 11,7 53,8 1,4 129 - 0,0 306 1.018,4
13:57 16,7 7,1 11,6 53,0 1,0 1 - 0,0 265 1.018,4
13:56 16,8 7,2 11,6 53,0 1,4 136 - 0,0 224 1.018,4
13:55 16,8 7,2 11,6 53,0 1,2 94 - 0,0 212 1.018,4
13:54 16,8 7,2 11,7 53,0 0,5 243 - 0,0 187 1.018,4
13:53 16,9 7,3 11,7 53,0 0,5 101 - 0,0 142 1.018,5
13:52 16,9 7,3 11,7 53,0 1,4 109 - 0,0 124 1.018,5
13:51 16,9 7,3 11,8 53,0 1,6 102 - 0,0 115 1.018,5
13:50 17,0 7,4 11,8 53,0 1,6 93 - 0,0 113 1.018,5
13:49 17,1 7,4 11,9 53,0 0,6 77 - 0,0 122 1.018,5
13:48 17,1 7,5 11,9 53,0 0,9 233 - 0,0 129 1.018,5
13:47 17,1 7,5 11,9 53,0 1,7 255 - 0,0 136 1.018,5
13:46 17,1 7,6 12,0 53,3 1,6 170 - 0,0 144 1.018,5
13:45 17,2 7,7 12,0 53,6 3,2 86 - 0,0 154 1.018,5
13:44 17,2 7,7 12,1 53,6 4,3 109 - 0,0 728 1.018,5
13:43 17,2 7,8 12,1 54,0 3,1 85 - 0,0 791 1.018,4
13:42 17,2 8,1 12,2 54,9 2,2 215 - 0,0 797 1.018,4
13:41 17,1 8,0 12,2 55,0 3,3 188 - 0,0 811 1.018,4
13:40 17,0 8,1 12,2 55,3 2,0 242 - 0,0 814 1.018,4
13:39 16,9 8,2 12,2 56,0 1,2 325 - 0,0 816 1.018,4
13:38 16,9 8,1 12,1 56,0 0,6 235 - 0,0 809 1.018,4
13:37 16,8 7,8 12,0 55,3 1,2 190 - 0,0 799 1.018,5
13:36 16,8 7,7 11,9 55,0 0,4 261 - 0,0 785 1.018,5
13:35 16,8 7,7 11,9 55,0 1,6 87 - 0,0 775 1.018,5
13:34 16,8 7,7 11,9 55,0 3,4 155 - 0,0 775 1.018,5
13:33 16,8 7,7 11,9 55,0 4,2 103 - 0,0 798 1.018,6
13:32 16,8 8,0 12,1 55,6 5,0 90 - 0,0 807 1.018,5
13:31 16,8 8,0 12,1 56,0 4,1 83 - 0,0 821 1.018,5
13:30 16,7 8,2 12,1 56,9 2,2 102 - 0,0 819 1.018,5
13:29 16,6 7,9 11,9 56,2 1,3 5 - 0,0 815 1.018,5
13:28 16,5 7,9 11,9 56,7 1,1 50 - 0,0 808 1.018,5
13:27 16,4 7,7 11,8 56,0 0,7 124 - 0,0 779 1.018,5
13:26 16,4 7,6 11,7 56,0 1,0 229 - 0,0 773 1.018,6
13:25 16,3 7,6 11,7 56,0 1,7 105 - 0,0 771 1.018,6
13:24 16,3 7,4 11,6 55,2 2,8 80 - 0,0 765 1.018,5
13:23 16,3 7,9 11,8 57,2 3,3 151 - 0,0 763 1.018,5
13:22 16,3 8,1 11,9 58,0 3,2 99 - 0,0 784 1.018,6
13:21 16,2 8,0 11,8 58,0 2,7 107 - 0,0 793 1.018,5
13:20 16,1 8,1 11,9 58,7 2,3 106 - 0,0 819 1.018,6
13:19 16,0 8,1 11,8 59,0 2,4 59 - 0,0 848 1.018,6
13:18 16,0 8,0 11,8 59,0 0,9 99 - 0,0 843 1.018,6
13:17 15,9 8,0 11,7 59,0 0,3 257 - 0,0 827 1.018,6
13:16 15,8 7,8 11,6 58,5 0,7 89 - 0,0 830 1.018,6
13:15 15,8 7,6 11,5 58,0 2,6 136 - 0,0 830 1.018,6
13:14 15,8 7,6 11,5 58,0 3,8 94 - 0,0 830 1.018,6
13:13 15,8 7,6 11,5 58,0 4,4 78 - 0,0 825 1.018,6
13:12 15,8 7,8 11,6 59,0 4,1 81 - 0,0 814 1.018,6
13:11 15,7 7,8 11,5 59,0 4,6 93 - 0,0 806 1.018,6
13:10 15,7 7,7 11,5 59,0 4,9 97 - 0,0 800 1.018,5
13:09 15,7 7,7 11,5 59,0 4,2 95 - 0,0 805 1.018,6
13:08 15,7 7,6 11,4 58,3 3,0 107 - 0,0 803 1.018,6
13:07 15,7 7,5 11,4 58,0 2,9 72 - 0,0 616 1.018,6
13:06 15,6 7,5 11,4 58,2 2,5 133 - 0,0 199 1.018,6
13:05 15,6 7,8 11,5 59,3 2,3 26 - 0,0 188 1.018,6
13:04 15,6 7,9 11,6 60,0 2,7 153 - 0,0 645 1.018,6
13:03 15,6 7,9 11,5 60,0 3,3 87 - 0,0 799 1.018,6
13:02 15,5 7,7 11,4 59,3 2,3 116 - 0,0 668 1.018,6
13:01 15,5 7,6 11,4 59,0 1,3 173 - 0,0 220 1.018,6
13:00 15,5 7,5 11,3 59,0 0,7 102 - 0,0 220 1.018,6
 
12:59 15,5 7,5 11,3 58,7 1,6 240 - 0,0 220 1.018,6
12:58 15,5 7,3 11,2 58,0 1,4 227 - 0,0 186 1.018,6
12:57 15,5 7,5 11,4 58,6 0,9 13 - 0,0 143 1.018,7
12:56 15,6 7,4 11,3 58,3 3,2 97 - 0,0 135 1.018,7
12:55 15,6 7,7 11,4 59,0 3,7 43 - 0,0 393 1.018,7
12:54 15,6 7,9 11,6 60,0 3,8 86 - 0,0 773 1.018,7
12:53 15,6 7,9 11,5 60,0 2,5 39 - 0,0 773 1.018,7
12:52 15,5 7,9 11,5 60,0 1,6 155 - 0,0 771 1.018,6
12:51 15,5 7,8 11,5 60,0 0,7 87 - 0,0 752 1.018,6
12:50 15,4 7,8 11,4 60,0 0,3 313 - 0,0 745 1.018,7
12:49 15,4 7,8 11,4 60,0 1,4 145 - 0,0 745 1.018,7
12:48 15,4 7,8 11,4 60,2 3,4 166 - 0,0 745 1.018,7
12:47 15,4 7,9 11,5 61,0 4,3 92 - 0,0 735 1.018,7
12:46 15,3 7,9 11,4 61,0 3,4 91 - 0,0 734 1.018,7
12:45 15,2 7,8 11,4 61,0 2,2 198 10,7 0,0 750 1.018,6
12:44 15,2 7,8 11,4 61,0 2,5 63 - 0,0 766 1.018,7
12:43 15,1 7,7 11,3 61,0 4,2 102 - 0,0 782 1.018,7
12:42 15,1 7,8 11,3 61,4 3,8 102 - 0,0 777 1.018,7
12:41 15,0 7,8 11,3 61,7 1,7 83 - 0,0 773 1.018,7
12:40 14,9 7,6 11,1 61,0 1,5 220 - 0,0 773 1.018,7
12:39 14,9 7,5 11,1 61,0 2,4 106 - 0,0 775 1.018,7
12:38 14,9 7,5 11,1 61,0 3,6 97 - 0,0 790 1.018,7
12:37 14,9 7,5 11,1 61,0 3,4 100 - 0,0 816 1.018,7
12:36 14,9 7,5 11,1 61,0 3,3 83 - 0,0 477 1.018,7
12:35 14,9 7,7 11,2 61,4 3,5 81 - 0,0 241 1.018,7
12:34 14,9 7,8 11,3 62,0 3,0 89 - 0,0 206 1.018,7
12:33 15,0 7,8 11,3 62,0 1,9 72 - 0,0 200 1.018,7
12:32 14,9 7,8 11,3 62,0 0,8 151 - 0,0 389 1.018,8
12:31 14,9 7,8 11,3 62,0 1,3 236 - 0,0 826 1.018,8
12:30 14,9 7,7 11,2 62,0 2,7 116 - 0,0 826 1.018,8
12:29 14,9 7,8 11,3 62,4 4,1 120 9,4 0,0 826 1.018,7
12:28 14,9 8,0 11,3 63,0 4,4 91 - 0,0 826 1.018,7
12:27 14,8 8,1 11,4 63,9 4,3 96 - 0,0 826 1.018,8
12:26 14,8 8,1 11,4 64,0 3,9 108 - 0,0 837 1.018,8
12:25 14,7 8,1 11,3 64,0 1,7 105 - 0,0 800 1.018,8
12:24 14,7 8,0 11,3 64,0 0,8 292 - 0,0 811 1.018,8
12:23 14,6 8,0 11,2 64,0 1,6 118 - 0,0 819 1.018,8
12:22 14,6 7,9 11,2 64,0 1,8 146 - 0,0 798 1.018,8
12:21 14,5 7,8 11,1 64,0 0,6 293 - 0,0 791 1.018,7
12:20 14,4 7,8 11,1 64,0 1,8 288 - 0,0 792 1.018,8
12:19 14,4 7,7 11,0 64,0 1,9 256 - 0,0 537 1.018,7
12:18 14,3 7,7 11,0 64,0 1,6 274 - 0,0 276 1.018,7
12:17 14,4 7,7 11,0 64,0 0,8 302 - 0,0 276 1.018,8
12:16 14,3 7,7 11,0 64,0 0,5 153 - 0,0 218 1.018,7
12:15 14,4 7,7 11,0 64,0 0,5 300 - 0,0 203 1.018,8
12:14 14,3 7,9 11,1 64,9 0,2 115 - 0,0 210 1.018,8
12:13 14,3 7,8 11,0 64,8 0,8 309 - 0,0 234 1.018,8
12:12 14,3 7,6 10,9 64,0 0,5 110 - 0,0 250 1.018,7
12:11 14,3 7,6 10,9 64,0 1,2 292 - 0,0 250 1.018,8
12:10 14,3 7,6 10,9 64,0 0,6 191 - 0,0 246 1.018,7
12:09 14,3 7,6 10,9 64,0 1,0 14 - 0,0 217 1.018,7
12:08 14,3 7,6 10,9 64,1 1,3 99 - 0,0 236 1.018,7
12:07 14,3 7,9 11,0 65,0 0,7 278 - 0,0 222 1.018,8
12:06 14,3 7,9 11,0 65,0 0,4 142 - 0,0 200 1.018,8
12:05 14,3 7,8 11,0 65,0 1,5 26 - 0,0 199 1.018,8
12:04 14,2 7,8 11,0 65,0 1,1 70 - 0,0 199 1.018,8
12:03 14,2 7,8 11,0 65,0 3,3 192 - 0,0 199 1.018,8
12:02 14,2 7,8 11,0 65,0 4,4 274 - 0,0 199 1.018,9
12:01 14,2 7,8 11,0 65,0 3,3 318 - 0,0 199 1.018,9
12:00 14,3 7,9 11,0 65,0 2,0 257 - 0,0 154 1.018,8
 
11:59 14,3 7,9 11,0 65,0 3,0 311 - 0,0 144 1.018,7
11:58 14,3 8,0 11,1 65,7 2,2 332 - 0,0 217 1.018,7
11:57 14,2 8,1 11,1 66,0 3,0 72 9,4 0,0 744 1.018,8
11:56 14,2 8,0 11,1 66,0 1,9 145 9,4 0,0 743 1.018,8
11:55 14,2 8,0 11,1 66,0 2,2 101 - 0,0 724 1.018,8
11:54 14,2 8,0 11,0 66,0 3,2 70 - 0,0 715 1.018,9
11:53 14,2 7,9 11,0 65,5 3,2 107 - 0,0 715 1.018,8
11:52 14,1 7,9 11,0 65,7 2,3 109 - 0,0 226 1.018,8
11:51 14,1 8,0 11,0 66,0 3,8 219 - 0,0 209 1.018,9
11:50 14,2 8,0 11,1 66,0 2,7 182 - 0,0 229 1.018,9
11:49 14,2 8,0 11,0 66,0 2,7 104 - 0,0 229 1.018,9